FW4770 Weather Reports


time (UTC)temp
F
wind
direction
speed
knots
gust
knots
rain 1hr
in
rain 24hr
in
rain mn
in
humidity
%
barometer
mb
20260902194910 85 171 3.5 7.0 0.00 0.01 0.01 59 1012.7
20260902194755 84 167 2.6 7.0 0.00 0.01 0.01 58 1012.7
20260902194700 84 190 2.6 7.0 0.00 0.01 0.01 58 1012.8
20260902194625 84 190 4.3 7.0 0.00 0.01 0.01 58 1012.8
20260902194512 84 186 4.3 7.8 0.00 0.01 0.01 58 1012.8
20260902194417 84 159 2.6 7.8 0.00 0.01 0.01 61 1012.8
20260902194300 84 123 3.5 7.8 0.00 0.01 0.01 59 1012.8
20260902194205 84 117 4.3 7.8 0.00 0.01 0.01 59 1012.8
20260902194110 84 137 5.2 7.8 0.00 0.01 0.01 60 1012.8
20260902193955 84 176 4.3 7.8 0.00 0.01 0.01 59 1012.9
20260902193904 84 237 4.3 7.8 0.00 0.01 0.01 59 1012.9
20260902193809 85 227 5.2 7.8 0.00 0.01 0.01 60 1012.9
20260902193733 84 216 5.2 7.8 0.00 0.01 0.01 60 1013.0
20260902193616 84 211 4.3 7.0 0.00 0.01 0.01 60 1013.0
20260902193459 84 218 2.6 7.0 0.00 0.01 0.01 59 1013.0
20260902193403 84 93 2.6 7.0 0.00 0.01 0.01 59 1013.0
20260902193308 84 92 3.5 7.8 0.00 0.01 0.01 58 1013.0
20260902193216 84 91 2.6 7.8 0.00 0.01 0.01 63 1013.0
20260902193120 84 105 2.6 7.8 0.00 0.01 0.01 63 1013.0
20260902192958 84 108 3.5 7.8 0.00 0.01 0.01 61 1013.1
20260902192903 84 165 4.3 7.8 0.00 0.01 0.01 59 1013.0
20260902192828 84 166 4.3 7.8 0.00 0.01 0.01 59 1013.0
20260902192711 84 128 4.3 7.8 0.00 0.01 0.01 60 1013.0
20260902192614 84 161 4.3 7.8 0.00 0.01 0.01 60 1013.1
20260902192503 84 139 3.5 7.8 0.00 0.01 0.01 62 1013.1
20260902192408 84 115 3.5 7.8 0.00 0.01 0.01 61 1013.1
20260902192313 84 131 5.2 7.8 0.00 0.01 0.01 62 1013.0
20260902192239 84 110 6.1 7.8 0.00 0.01 0.01 62 1013.1
20260902192055 84 106 5.2 7.0 0.00 0.01 0.01 61 1013.1
20260902192000 84 101 4.3 7.0 0.00 0.01 0.01 60 1013.1
20260902191909 84 112 4.3 7.0 0.00 0.01 0.01 61 1013.1
20260902191813 84 155 3.5 7.0 0.00 0.01 0.01 63 1013.1
20260902191718 83 131 2.6 7.0 0.00 0.01 0.01 63 1013.1
20260902191556 83 124 1.7 7.0 0.00 0.01 0.01 63 1013.2
20260902191501 83 171 1.7 7.0 0.00 0.01 0.01 63 1013.1
20260902191426 83 171 2.6 7.0 0.00 0.01 0.01 64 1013.1
20260902191309 83 192 2.6 7.0 0.00 0.01 0.01 62 1013.1
20260902191158 83 192 3.5 7.0 0.00 0.01 0.01 62 1013.1
20260902191103 83 186 5.2 7.0 0.00 0.01 0.01 62 1013.1
20260902191007 83 196 5.2 7.0 0.00 0.01 0.01 63 1013.1
20260902190912 83 209 3.5 7.8 0.00 0.01 0.01 64 1013.1
20260902190757 83 184 0.9 7.8 0.00 0.01 0.01 64 1013.1
20260902190706 83 184 0.0 7.8 0.00 0.01 0.01 63 1013.1
20260902190610 83 184 0.9 7.8 0.00 0.01 0.01 63 1013.1
20260902190535 83 184 1.7 7.8 0.00 0.01 0.01 62 1013.1
20260902190418 83 184 3.5 7.8 0.00 0.01 0.01 62 1013.3
20260902190302 83 180 4.3 7.8 0.00 0.01 0.01 62 1013.3
20260902190207 83 168 5.2 7.8 0.00 0.01 0.01 62 1013.2
20260902190111 83 221 5.2 7.8 0.00 0.01 0.01 62 1013.2
20260902190000 83 208 4.3 8.7 0.00 0.01 0.01 61 1013.3
20260902185902 83 180 4.3 8.7 0.00 0.01 0.01 63 1013.3
20260902185807 83 176 4.3 8.7 0.00 0.01 0.01 61 1013.3
20260902185731 83 214 3.5 8.7 0.00 0.01 0.01 62 1013.3
20260902185555 83 192 4.3 8.7 0.00 0.01 0.01 62 1013.3
20260902185520 83 188 5.2 8.7 0.00 0.01 0.01 62 1013.3
20260902185358 83 189 4.3 8.7 0.00 0.01 0.01 62 1013.3
20260902185307 83 191 3.5 8.7 0.00 0.01 0.01 63 1013.3
20260902185212 83 192 2.6 8.7 0.00 0.01 0.01 62 1013.3
20260902185137 83 192 2.6 8.7 0.00 0.01 0.01 61 1013.3
20260902185041 83 190 4.3 8.7 0.00 0.01 0.01 62 1013.3
20260902184858 83 197 4.3 8.7 0.00 0.01 0.01 63 1013.3
20260902184803 83 177 4.3 7.0 0.00 0.01 0.01 61 1013.3
20260902184706 83 178 4.3 7.0 0.00 0.01 0.01 62 1013.3
20260902184555 83 188 3.5 7.0 0.00 0.01 0.01 63 1013.4
20260902184520 82 187 4.3 8.7 0.00 0.01 0.01 61 1013.4
20260902184423 82 174 4.3 8.7 0.00 0.01 0.01 62 1013.4
20260902184307 82 171 4.3 8.7 0.00 0.01 0.01 61 1013.4
20260902184212 82 182 4.3 8.7 0.00 0.01 0.01 61 1013.4
20260902184117 82 127 5.2 8.7 0.00 0.01 0.01 62 1013.5
20260902184001 82 169 5.2 8.7 0.00 0.01 0.01 61 1013.5
20260902183910 83 187 6.1 8.7 0.00 0.01 0.01 61 1013.5
20260902183755 83 201 5.2 8.7 0.00 0.01 0.01 62 1013.5
20260902183659 83 181 4.3 8.7 0.00 0.01 0.01 63 1013.5
20260902183604 82 172 5.2 8.7 0.00 0.01 0.01 62 1013.6
20260902183529 82 199 6.1 8.7 0.00 0.01 0.01 62 1013.6
20260902183413 82 191 5.2 8.7 0.00 0.01 0.01 62 1013.5
20260902183302 82 193 3.5 8.7 0.00 0.01 0.01 63 1013.7
20260902183207 82 193 1.7 7.8 0.00 0.01 0.01 62 1013.7
20260902183112 82 192 1.7 7.8 0.00 0.01 0.01 61 1013.6
20260902182957 82 190 4.3 7.8 0.00 0.01 0.01 63 1013.7
20260902182922 82 190 4.3 7.8 0.00 0.01 0.01 63 1013.7
20260902182806 82 190 3.5 6.1 0.00 0.01 0.01 64 1013.8
20260902182731 82 227 2.6 7.0 0.00 0.01 0.01 63 1013.8
20260902182619 82 194 1.7 7.8 0.00 0.01 0.01 65 1013.7
20260902182456 82 113 2.6 7.8 0.00 0.01 0.01 63 1013.7
20260902182401 82 200 4.3 7.8 0.00 0.01 0.01 64 1013.7
20260902182326 82 238 5.2 7.8 0.00 0.01 0.01 63 1013.7
20260902182230 82 201 5.2 7.8 0.00 0.01 0.01 64 1013.7
20260902182114 82 286 4.3 7.8 0.00 0.01 0.01 64 1013.7
20260902182003 82 277 5.2 7.8 0.00 0.01 0.01 62 1013.8
20260902181906 82 243 5.2 7.8 0.00 0.01 0.01 64 1013.7
20260902181831 82 241 4.3 8.7 0.00 0.01 0.01 63 1013.7
20260902181655 81 239 2.6 7.8 0.00 0.01 0.01 63 1013.8
20260902181620 81 198 3.5 7.8 0.00 0.01 0.01 64 1013.8
20260902181458 81 246 4.3 7.8 0.00 0.01 0.01 63 1013.8
20260902181402 81 252 5.2 7.8 0.00 0.01 0.01 63 1013.8
20260902181331 81 276 5.2 7.8 0.00 0.01 0.01 63 1013.8
20260902181155 81 250 4.3 8.7 0.00 0.01 0.01 64 1013.9
20260902181100 81 245 5.2 8.7 0.00 0.01 0.01 65 1013.9
20260902181025 81 232 5.2 8.7 0.00 0.01 0.01 65 1013.8
20260902180929 81 182 5.2 8.7 0.00 0.01 0.01 64 1013.8
20260902180813 81 144 5.2 8.7 0.00 0.01 0.01 64 1013.9
20260902180657 81 142 4.3 8.7 0.00 0.01 0.01 64 1013.8
20260902180606 81 134 4.3 8.7 0.00 0.01 0.01 64 1013.9
20260902180531 81 192 5.2 8.7 0.00 0.01 0.01 65 1013.9
20260902180435 81 156 6.1 8.7 0.00 0.01 0.01 65 1013.9
20260902180258 81 201 5.2 8.7 0.00 0.01 0.01 65 1013.9
20260902180203 81 196 4.3 8.7 0.00 0.01 0.01 66 1013.9
20260902180108 81 188 3.5 8.7 0.00 0.01 0.01 67 1013.9
20260902175957 81 221 3.5 8.7 0.00 0.01 0.01 66 1014.0
20260902175902 81 220 2.6 8.7 0.00 0.01 0.01 67 1014.0
20260902175806 81 190 2.6 8.7 0.00 0.01 0.01 68 1014.0
20260902175712 81 202 2.6 8.7 0.00 0.01 0.01 67 1014.0
20260902175616 81 225 1.7 8.7 0.00 0.01 0.01 66 1014.1
20260902175500 81 261 2.6 8.7 0.00 0.01 0.01 67 1014.1
20260902175425 81 263 4.3 8.7 0.00 0.01 0.01 66 1014.1
20260902175328 81 281 4.3 7.8 0.00 0.01 0.01 66 1014.1
20260902175156 81 259 5.2 7.8 0.00 0.01 0.01 66 1014.0
20260902175059 81 258 5.2 7.8 0.00 0.01 0.01 66 1014.0
20260902175024 81 267 5.2 7.8 0.00 0.01 0.01 68 1013.9
20260902174907 81 277 5.2 7.8 0.00 0.01 0.01 69 1013.9
20260902174812 81 284 4.3 7.8 0.00 0.01 0.01 69 1014.0
20260902174717 80 273 5.2 7.8 0.00 0.01 0.01 68 1014.1
20260902174605 80 230 5.2 7.8 0.00 0.01 0.01 66 1014.1
20260902174530 81 241 4.3 7.8 0.00 0.01 0.01 69 1014.1
20260902174414 81 236 2.6 7.8 0.00 0.01 0.01 68 1014.0
20260902174259 81 226 3.5 7.8 0.00 0.01 0.01 68 1014.1
20260902174224 81 225 3.5 7.8 0.00 0.01 0.01 68 1014.1
20260902174108 81 224 4.3 7.8 0.00 0.01 0.01 68 1014.1
20260902174013 81 225 4.3 7.8 0.00 0.01 0.01 68 1014.2
20260902173902 81 201 4.3 7.8 0.00 0.01 0.01 69 1014.2
20260902173806 81 219 4.3 7.8 0.00 0.01 0.01 68 1014.2
20260902173731 80 207 4.3 7.8 0.00 0.01 0.01 69 1014.2
20260902173555 80 198 3.5 7.8 0.00 0.01 0.01 69 1014.3
20260902173459 80 196 3.5 7.0 0.00 0.01 0.01 69 1014.3
20260902173405 80 204 3.5 7.0 0.00 0.01 0.01 69 1014.3
20260902173313 80 172 3.5 7.0 0.00 0.01 0.01 68 1014.3
20260902173218 80 223 4.3 7.0 0.00 0.01 0.01 67 1014.5
20260902173102 80 223 6.1 7.0 0.00 0.01 0.01 68 1014.5
20260902173006 80 231 5.2 7.0 0.00 0.01 0.01 68 1014.5
20260902172931 80 242 5.2 7.8 0.00 0.01 0.01 69 1014.5
20260902172755 80 204 4.3 7.0 0.00 0.01 0.01 69 1014.5
20260902172700 80 196 4.3 7.0 0.00 0.01 0.01 69 1014.4
20260902172608 80 196 4.3 7.0 0.00 0.01 0.01 68 1014.4
20260902172513 80 232 5.2 7.0 0.00 0.01 0.01 69 1014.4
20260902172418 80 233 6.1 7.8 0.00 0.01 0.01 69 1014.4
20260902172256 80 215 6.1 7.0 0.00 0.01 0.01 68 1014.4
20260902172200 80 239 5.2 7.8 0.00 0.01 0.01 67 1014.4
20260902172105 80 237 4.3 7.0 0.00 0.01 0.01 68 1014.3
20260902172014 80 221 3.5 7.0 0.00 0.01 0.01 68 1014.3
20260902171859 80 208 3.5 7.0 0.00 0.01 0.01 69 1014.2
20260902171823 80 194 4.3 7.0 0.00 0.01 0.01 68 1014.4
20260902171707 80 194 4.3 7.0 0.00 0.01 0.01 69 1014.4
20260902171631 80 188 3.5 7.8 0.00 0.01 0.01 69 1014.2
20260902171455 80 185 2.6 8.7 0.00 0.01 0.01 71 1014.2
20260902171404 80 280 3.5 8.7 0.00 0.01 0.01 72 1014.3
20260902171327 80 300 2.6 8.7 0.00 0.01 0.01 73 1014.3
20260902171231 79 320 2.6 8.7 0.00 0.01 0.01 71 1014.3
20260902171055 79 308 2.6 8.7 0.00 0.01 0.01 72 1014.3
20260902170959 79 305 4.3 8.7 0.00 0.01 0.01 70 1014.3
20260902170904 79 289 4.3 8.7 0.00 0.01 0.01 69 1014.3
20260902170809 79 259 5.2 8.7 0.00 0.01 0.01 69 1014.3
20260902170717 79 260 5.2 8.7 0.00 0.01 0.01 70 1014.3
20260902170601 79 262 5.2 8.7 0.00 0.01 0.01 71 1014.3
20260902170526 79 223 4.3 7.8 0.00 0.01 0.01 70 1014.3
20260902170410 79 248 4.3 7.8 0.00 0.01 0.01 69 1014.3
20260902170334 79 247 6.1 7.8 0.00 0.01 0.01 69 1014.3
20260902170218 79 247 5.2 7.8 0.00 0.01 0.01 69 1014.2
20260902170005 79 216 3.5 7.0 0.00 0.01 0.01 69 1014.2
20260902165914 79 213 3.5 7.0 0.00 0.01 0.01 69 1014.2
20260902165820 79 215 2.6 7.0 0.00 0.01 0.01 69 1014.3
20260902165703 79 212 2.6 7.0 0.00 0.01 0.01 69 1014.3
20260902165608 79 178 3.5 7.0 0.00 0.01 0.01 69 1014.3
20260902165512 79 165 3.5 7.0 0.00 0.01 0.01 70 1014.4
20260902165357 79 167 4.3 7.0 0.00 0.01 0.01 70 1014.3
20260902165309 79 181 3.5 7.0 0.00 0.01 0.01 68 1014.2
20260902165210 79 189 3.5 8.7 0.00 0.01 0.01 69 1014.2
20260902165134 79 192 3.5 8.7 0.00 0.01 0.01 70 1014.1
20260902164958 79 181 3.5 8.7 0.00 0.01 0.01 68 1014.1
20260902164903 79 182 3.5 8.7 0.00 0.01 0.01 68 1014.2
20260902164807 79 158 3.5 8.7 0.00 0.01 0.01 68 1014.2
20260902164656 79 155 2.6 8.7 0.00 0.01 0.01 68 1014.2
20260902164601 79 163 4.3 8.7 0.00 0.01 0.01 68 1014.3
20260902164505 79 166 5.2 8.7 0.00 0.01 0.01 69 1014.3
20260902164410 79 208 5.2 8.7 0.00 0.01 0.01 70 1014.3
20260902164255 79 239 4.3 7.8 0.00 0.01 0.01 70 1014.4
20260902164200 79 191 4.3 7.8 0.00 0.01 0.01 71 1014.4
20260902164129 79 207 4.3 7.8 0.00 0.01 0.01 70 1014.4
20260902164012 79 177 3.5 7.8 0.00 0.01 0.01 71 1014.4
20260902163857 79 213 3.5 7.8 0.00 0.01 0.01 70 1014.4
20260902163802 79 212 4.3 7.8 0.00 0.01 0.01 71 1014.5
20260902163706 79 211 5.2 7.8 0.00 0.01 0.01 70 1014.5
20260902163611 79 207 5.2 7.8 0.00 0.01 0.01 70 1014.5
20260902163520 79 201 4.3 7.0 0.00 0.01 0.01 73 1014.4
20260902163404 79 166 4.3 7.0 0.00 0.01 0.01 72 1014.4
20260902163309 79 216 4.3 7.0 0.00 0.01 0.01 71 1014.4
20260902163214 79 215 4.3 7.0 0.00 0.01 0.01 71 1014.4
20260902163059 79 184 5.2 7.0 0.00 0.01 0.01 71 1014.5
20260902163004 79 185 4.3 7.0 0.00 0.01 0.01 71 1014.5
20260902162927 79 177 4.3 7.0 0.00 0.01 0.01 71 1014.5
20260902162755 79 209 3.5 7.0 0.00 0.01 0.01 73 1014.6
20260902162659 79 222 1.7 6.1 0.00 0.01 0.01 73 1014.6
20260902162604 79 240 1.7 6.1 0.00 0.01 0.01 72 1014.6
20260902162509 79 240 1.7 6.1 0.00 0.01 0.01 72 1014.6
20260902162414 79 235 1.7 6.1 0.00 0.01 0.01 73 1014.6
20260902162306 78 200 0.9 6.1 0.00 0.01 0.01 73 1014.5
20260902162205 78 200 0.9 6.1 0.00 0.01 0.01 73 1014.5
20260902162110 78 199 1.7 6.1 0.00 0.01 0.01 72 1014.5
20260902162014 78 199 2.6 6.1 0.00 0.01 0.01 72 1014.5
20260902161859 78 200 3.5 6.1 0.00 0.01 0.01 72 1014.4
20260902161824 78 200 3.5 7.0 0.00 0.01 0.01 72 1014.3
20260902161708 78 200 3.5 7.0 0.00 0.01 0.01 73 1014.3
20260902161556 78 219 3.5 7.0 0.00 0.01 0.01 73 1014.2
20260902161501 78 242 2.6 7.0 0.00 0.01 0.01 73 1014.1
20260902161406 78 165 0.9 4.3 0.00 0.01 0.01 74 1014.1
20260902161310 78 165 0.0 4.3 0.00 0.01 0.01 74 1014.1
20260902161215 78 165 0.9 5.2 0.00 0.01 0.01 73 1014.1
20260902161119 77 164 1.7 5.2 0.00 0.01 0.01 73 1014.2
20260902161007 77 164 1.7 5.2 0.00 0.01 0.01 73 1014.2
20260902160932 77 164 1.7 5.2 0.00 0.01 0.01 72 1014.1
20260902160814 77 225 2.6 5.2 0.00 0.01 0.01 72 1014.2
20260902160659 77 225 2.6 5.2 0.00 0.01 0.01 72 1014.1
20260902160624 77 235 2.6 5.2 0.00 0.01 0.01 72 1014.1
20260902160508 77 204 3.5 5.2 0.00 0.01 0.01 72 1014.1
20260902160413 77 204 3.5 7.0 0.00 0.01 0.01 73 1014.1
20260902160302 77 202 3.5 7.0 0.00 0.01 0.01 72 1014.0
20260902160207 77 182 2.6 7.0 0.00 0.01 0.01 73 1014.1
20260902160111 78 169 1.7 7.0 0.00 0.01 0.01 73 1014.1
20260902160016 78 99 1.7 7.0 0.00 0.01 0.01 74 1014.0
20260902155918 78 99 3.5 7.0 0.00 0.01 0.01 74 1014.0
20260902155756 78 98 3.5 7.0 0.00 0.01 0.01 74 1014.0
20260902155701 78 103 3.5 7.0 0.00 0.01 0.01 75 1014.0
20260902155630 78 123 3.5 7.0 0.00 0.01 0.01 76 1014.0
20260902155514 78 51 3.5 7.0 0.00 0.01 0.01 76 1013.9
20260902155358 77 64 3.5 5.2 0.00 0.01 0.01 75 1013.8
20260902155306 77 94 3.5 5.2 0.00 0.01 0.01 75 1013.9
20260902155208 77 65 3.5 6.1 0.00 0.01 0.01 75 1013.9
20260902155113 77 115 2.6 6.1 0.00 0.01 0.01 76 1013.9
20260902155002 77 117 2.6 6.1 0.00 0.01 0.01 76 1013.8
20260902154907 77 107 3.5 6.1 0.00 0.01 0.01 76 1013.8
20260902154831 77 90 4.3 6.1 0.00 0.01 0.01 75 1013.8
20260902154655 77 80 3.5 6.1 0.00 0.01 0.01 76 1013.8
20260902154620 77 91 3.5 6.1 0.00 0.01 0.01 75 1013.8
20260902154504 77 96 2.6 6.1 0.00 0.01 0.01 76 1013.9
20260902154429 77 105 2.6 6.1 0.00 0.01 0.01 76 1013.9
20260902154257 77 122 3.5 6.1 0.00 0.01 0.01 76 1013.8
20260902154201 77 128 3.5 6.1 0.00 0.01 0.01 77 1013.9
20260902154106 77 90 2.6 3.5 0.00 0.01 0.01 77 1013.9
20260902154011 77 85 1.7 3.5 0.00 0.01 0.01 76 1013.9
20260902153856 76 131 1.7 3.5 0.00 0.01 0.01 76 1013.9
20260902153821 76 131 1.7 3.5 0.00 0.01 0.01 76 1013.9
20260902153724 77 131 1.7 3.5 0.00 0.01 0.01 75 1013.9
20260902153628 76 131 1.7 3.5 0.00 0.01 0.01 76 1013.9
20260902153456 76 130 1.7 3.5 0.00 0.01 0.01 76 1013.9
20260902153401 76 129 0.9 3.5 0.00 0.01 0.01 78 1013.8
20260902153327 76 128 0.9 3.5 0.00 0.01 0.01 78 1013.9
20260902153210 76 128 0.9 3.5 0.00 0.01 0.01 77 1013.9
20260902153055 76 128 2.6 3.5 0.00 0.01 0.01 77 1014.0
20260902153019 76 128 2.6 3.5 0.00 0.01 0.01 77 1013.9
20260902152907 76 129 2.6 3.5 0.00 0.01 0.01 79 1013.9
20260902152812 76 129 2.6 3.5 0.00 0.01 0.01 79 1013.9
20260902152657 76 142 1.7 3.5 0.00 0.01 0.01 77 1013.9
20260902152602 76 146 1.7 3.5 0.00 0.01 0.01 77 1013.9
20260902152507 76 171 1.7 3.5 0.00 0.01 0.01 76 1013.9
20260902152412 76 172 1.7 3.5 0.00 0.01 0.01 76 1013.9
20260902152321 76 189 1.7 3.5 0.00 0.01 0.01 76 1013.9
20260902152156 76 189 2.6 3.5 0.00 0.01 0.01 77 1013.9
20260902152100 75 190 2.6 3.5 0.00 0.01 0.01 77 1014.1
20260902152005 75 190 1.7 3.5 0.00 0.01 0.01 77 1014.0
20260902151910 75 217 1.7 3.5 0.00 0.01 0.01 77 1014.0
20260902151835 75 245 0.9 3.5 0.00 0.01 0.01 77 1014.0
20260902151719 75 268 0.9 3.5 0.00 0.01 0.01 77 1014.2
20260902151607 75 268 1.7 3.5 0.00 0.01 0.01 77 1014.2
20260902151512 75 271 1.7 3.5 0.00 0.01 0.01 77 1014.2
20260902151437 75 300 1.7 3.5 0.00 0.01 0.01 78 1014.3
20260902151340 75 300 0.9 3.5 0.00 0.01 0.01 80 1014.3
20260902151157 75 17 1.7 3.5 0.00 0.01 0.01 80 1014.3
20260902151101 75 17 1.7 3.5 0.00 0.01 0.01 80 1014.2
20260902151006 74 17 1.7 3.5 0.00 0.01 0.01 81 1014.2
20260902150855 74 214 0.9 4.3 0.00 0.01 0.01 79 1014.1
20260902150820 74 214 0.9 4.3 0.00 0.01 0.01 79 1014.1
20260902150657 74 214 1.7 4.3 0.00 0.01 0.01 79 1014.1
20260902150602 74 213 0.9 4.3 0.00 0.01 0.01 79 1014.0
20260902150506 74 213 0.9 4.3 0.00 0.01 0.01 78 1014.0
20260902150355 74 228 1.7 4.3 0.00 0.01 0.01 79 1013.8
20260902150321 74 228 2.6 4.3 0.00 0.01 0.01 79 1013.8
20260902150159 74 228 2.6 4.3 0.00 0.01 0.01 78 1013.7
20260902150104 74 228 2.6 4.3 0.00 0.01 0.01 79 1013.7
20260902150009 74 224 2.6 3.5 0.00 0.01 0.01 79 1013.7
20260902145914 74 224 1.7 3.5 0.00 0.01 0.01 80 1013.8
20260902145818 73 225 0.9 3.5 0.00 0.01 0.01 79 1013.8
20260902145705 73 225 0.9 4.3 0.00 0.01 0.01 79 1013.7
20260902145610 73 225 0.9 4.3 0.00 0.01 0.01 80 1013.7
20260902145535 73 225 0.9 4.3 0.00 0.01 0.01 80 1013.8
20260902145419 73 225 1.7 4.3 0.00 0.01 0.01 79 1013.8
20260902145256 73 225 1.7 4.3 0.00 0.01 0.01 80 1013.7
20260902145201 73 225 1.7 4.3 0.00 0.01 0.01 80 1013.8
20260902145110 73 225 2.6 4.3 0.00 0.01 0.01 80 1013.8
20260902145035 73 225 3.5 4.3 0.00 0.01 0.01 80 1013.8
20260902144918 73 225 2.6 4.3 0.00 0.01 0.01 81 1013.8
20260902144802 73 216 2.6 4.3 0.00 0.01 0.01 81 1013.9
20260902144705 73 216 1.7 4.3 0.00 0.01 0.01 81 1013.9
20260902144610 73 216 1.7 4.3 0.00 0.01 0.01 80 1013.9
20260902144514 73 216 2.6 4.3 0.00 0.01 0.01 80 1014.0
20260902144423 73 215 2.6 4.3 0.00 0.01 0.01 81 1013.9
20260902144307 73 215 2.6 4.3 0.00 0.01 0.01 82 1013.9
20260902144232 73 215 1.7 3.5 0.00 0.01 0.01 81 1014.0
20260902144056 72 188 0.9 3.5 0.00 0.01 0.01 81 1014.0
20260902144001 72 187 0.9 3.5 0.00 0.01 0.01 82 1014.1
20260902143905 72 187 0.9 4.3 0.00 0.01 0.01 81 1014.1
20260902143810 72 187 1.7 4.3 0.00 0.01 0.01 81 1014.1
20260902143740 72 187 1.7 4.3 0.00 0.01 0.01 81 1014.1
20260902143557 72 187 1.7 4.3 0.00 0.01 0.01 81 1014.1
20260902143502 72 187 1.7 4.3 0.00 0.01 0.01 82 1014.1
20260902143407 72 180 1.7 4.3 0.00 0.01 0.01 82 1014.1
20260902143312 72 179 1.7 4.3 0.00 0.01 0.01 82 1014.1
20260902143217 72 180 2.6 4.3 0.00 0.01 0.01 82 1014.1
20260902143105 72 180 2.6 4.3 0.00 0.01 0.01 82 1014.1
20260902143030 72 178 2.6 4.3 0.00 0.01 0.01 82 1014.1
20260902142913 72 176 2.6 4.3 0.00 0.01 0.01 82 1014.1
20260902142818 72 176 2.6 4.3 0.00 0.01 0.01 83 1014.1
20260902142655 72 175 1.7 3.5 0.00 0.01 0.01 82 1014.1
20260902142620 72 175 1.7 2.6 0.00 0.01 0.01 82 1014.1
20260902142458 72 173 0.9 2.6 0.00 0.01 0.01 83 1014.1
20260902142403 71 173 0.9 2.6 0.00 0.01 0.01 83 1014.1
20260902142308 71 173 1.7 3.5 0.00 0.01 0.01 83 1014.1
20260902142213 71 173 0.9 3.5 0.00 0.01 0.01 83 1014.2
20260902142058 71 173 0.9 5.2 0.00 0.01 0.01 83 1014.2
20260902142023 71 173 0.9 5.2 0.00 0.01 0.01 83 1014.2
20260902141907 71 173 0.9 5.2 0.00 0.01 0.01 83 1014.2
20260902141755 71 194 0.9 5.2 0.00 0.01 0.01 84 1014.1
20260902141719 71 194 0.9 5.2 0.00 0.01 0.01 83 1014.1
20260902141557 71 194 2.6 5.2 0.00 0.01 0.01 83 1014.2
20260902141522 71 194 2.6 5.2 0.00 0.01 0.01 83 1014.2
20260902141359 71 194 3.5 5.2 0.00 0.01 0.01 83 1014.1
20260902141304 71 194 3.5 5.2 0.00 0.01 0.01 83 1014.1
20260902141209 71 187 3.5 5.2 0.00 0.01 0.01 83 1014.1
20260902141117 71 188 4.3 5.2 0.00 0.01 0.01 84 1014.1
20260902140955 71 198 2.6 4.3 0.00 0.01 0.01 84 1014.1
20260902140919 71 198 1.7 4.3 0.00 0.01 0.01 84 1014.2
20260902140823 71 197 1.7 4.3 0.00 0.01 0.01 83 1014.3
20260902140707 71 197 1.7 4.3 0.00 0.01 0.01 83 1014.3
20260902140612 71 197 2.6 4.3 0.00 0.01 0.01 84 1014.3
20260902140501 71 197 2.6 4.3 0.00 0.01 0.01 84 1014.3
20260902140425 71 197 2.6 4.3 0.00 0.01 0.01 84 1014.3
20260902140309 71 198 1.7 4.3 0.00 0.01 0.01 85 1014.3
20260902140214 71 216 1.7 3.5 0.00 0.01 0.01 85 1014.3
20260902140118 71 216 2.6 3.5 0.00 0.01 0.01 84 1014.3
20260902140002 70 216 2.6 3.5 0.00 0.01 0.01 85 1014.3
20260902135907 70 216 1.7 3.5 0.00 0.01 0.01 85 1014.3
20260902135816 70 216 1.7 2.6 0.00 0.01 0.01 86 1014.4
20260902135741 70 216 0.9 3.5 0.00 0.01 0.01 85 1014.3
20260902135557 70 216 0.9 3.5 0.00 0.01 0.01 85 1014.3
20260902135522 70 216 1.7 3.5 0.00 0.01 0.01 85 1014.4
20260902135406 70 216 1.7 3.5 0.00 0.01 0.01 85 1014.4
20260902135311 70 216 1.7 3.5 0.00 0.01 0.01 85 1014.3
20260902135216 70 216 1.7 3.5 0.00 0.01 0.01 85 1014.3
20260902135119 70 216 1.7 3.5 0.00 0.01 0.01 84 1014.3
20260902135027 70 216 2.6 3.5 0.00 0.01 0.01 84 1014.3
20260902134910 70 216 2.6 4.3 0.00 0.01 0.01 85 1014.3
20260902134834 70 216 2.6 4.3 0.00 0.01 0.01 85 1014.3
20260902134719 70 215 1.7 5.2 0.00 0.01 0.01 85 1014.3
20260902134556 70 213 1.7 5.2 0.00 0.01 0.01 85 1014.2
20260902134501 70 213 1.7 5.2 0.00 0.01 0.01 86 1014.3
20260902134406 70 213 0.9 5.2 0.00 0.01 0.01 86 1014.3
20260902134334 70 213 0.9 5.2 0.00 0.01 0.01 86 1014.3
20260902134217 69 213 1.7 5.2 0.00 0.01 0.01 86 1014.3
20260902134055 69 213 3.5 5.2 0.00 0.01 0.01 86 1014.3
20260902134000 69 194 4.3 5.2 0.00 0.01 0.01 86 1014.3
20260902133925 69 194 3.5 5.2 0.00 0.01 0.01 86 1014.4
20260902133829 69 205 3.5 5.2 0.00 0.01 0.01 86 1014.4
20260902133713 69 203 2.6 5.2 0.00 0.01 0.01 86 1014.4
20260902133622 69 204 2.6 5.2 0.00 0.01 0.01 86 1014.4
20260902133523 69 217 2.6 5.2 0.00 0.01 0.01 86 1014.4
20260902133405 69 218 3.5 5.2 0.00 0.01 0.01 85 1014.4
20260902133330 69 223 3.5 5.2 0.00 0.01 0.01 85 1014.4
20260902133234 69 223 2.6 5.2 0.00 0.01 0.01 86 1014.5
20260902133058 69 227 1.7 5.2 0.00 0.01 0.01 86 1014.4
20260902133003 69 181 1.7 3.5 0.00 0.01 0.01 86 1014.5
20260902132908 69 181 2.6 3.5 0.00 0.01 0.01 86 1014.5
20260902132756 69 181 2.6 3.5 0.00 0.01 0.01 86 1014.5
20260902132701 69 180 1.7 3.5 0.00 0.01 0.01 87 1014.6
20260902132606 69 180 0.9 2.6 0.00 0.01 0.01 87 1014.6
20260902132511 69 180 1.7 2.6 0.00 0.01 0.01 87 1014.5
20260902132356 69 179 0.9 2.6 0.00 0.01 0.01 87 1014.4
20260902132306 69 179 0.9 2.6 0.00 0.01 0.01 87 1014.4
20260902132209 69 179 0.9 2.6 0.00 0.01 0.01 87 1014.4
20260902132113 68 179 0.9 2.6 0.00 0.01 0.01 87 1014.4
20260902131958 68 179 0.9 2.6 0.00 0.01 0.01 87 1014.5
20260902131903 68 179 0.9 2.6 0.00 0.01 0.01 87 1014.5
20260902131807 68 179 0.9 2.6 0.00 0.01 0.01 88 1014.5
20260902131656 68 179 1.7 2.6 0.00 0.01 0.01 88 1014.4
20260902131601 68 179 1.7 3.5 0.00 0.01 0.01 88 1014.4
20260902131526 68 179 0.9 3.5 0.00 0.01 0.01 88 1014.4
20260902131409 68 179 0.9 3.5 0.00 0.01 0.01 88 1014.4
20260902131334 68 179 0.9 3.5 0.00 0.01 0.01 88 1014.4
20260902131158 68 179 0.9 3.5 0.00 0.01 0.01 88 1014.4
20260902131103 68 179 0.9 3.5 0.00 0.01 0.01 88 1014.3
20260902131008 68 179 0.9 3.5 0.00 0.01 0.01 87 1014.3
20260902130938 68 179 1.7 3.5 0.00 0.01 0.01 88 1014.2
20260902130755 68 180 1.7 3.5 0.00 0.01 0.01 88 1014.3
20260902130721 68 180 0.9 3.5 0.00 0.01 0.01 88 1014.3
20260902130559 68 180 0.9 3.5 0.00 0.01 0.01 88 1014.3
20260902130504 68 180 0.0 3.5 0.00 0.01 0.01 88 1014.3
20260902130408 68 180 0.0 3.5 0.00 0.01 0.01 88 1014.3
20260902130257 68 180 0.9 3.5 0.00 0.01 0.01 88 1014.3
20260902130202 68 180 1.7 3.5 0.00 0.01 0.01 88 1014.2
20260902130106 68 180 2.6 3.5 0.00 0.01 0.01 88 1014.2
20260902130011 68 180 2.6 3.5 0.00 0.01 0.01 88 1014.3
20260902125917 68 184 1.7 3.5 0.00 0.01 0.01 88 1014.4
20260902125755 68 187 1.7 3.5 0.00 0.01 0.01 88 1014.4
20260902125704 68 187 1.7 3.5 0.00 0.01 0.01 88 1014.4
20260902125609 68 187 1.7 3.5 0.00 0.01 0.01 89 1014.4
20260902125513 68 186 1.7 3.5 0.00 0.01 0.01 89 1014.4
20260902125358 67 186 2.6 3.5 0.00 0.01 0.01 89 1014.3
20260902125305 67 186 2.6 3.5 0.00 0.01 0.01 89 1014.3
20260902125208 67 186 2.6 3.5 0.00 0.01 0.01 89 1014.3
20260902125056 67 186 2.6 3.5 0.00 0.01 0.01 89 1014.4
20260902125022 67 186 2.6 3.5 0.00 0.01 0.01 89 1014.4
20260902124859 67 186 2.6 3.5 0.00 0.01 0.01 89 1014.4
20260902124804 67 185 1.7 3.5 0.00 0.01 0.01 89 1014.5
20260902124709 67 184 1.7 3.5 0.00 0.01 0.01 89 1014.5
20260902124557 67 184 2.6 3.5 0.00 0.01 0.01 89 1014.5
20260902124522 67 184 2.6 3.5 0.00 0.01 0.01 89 1014.5
20260902124406 67 184 2.6 3.5 0.00 0.01 0.01 89 1014.5
20260902124311 67 184 1.7 3.5 0.00 0.01 0.01 89 1014.5
20260902124156 67 184 1.7 2.6 0.00 0.01 0.01 90 1014.5
20260902124121 67 184 1.7 2.6 0.00 0.01 0.01 90 1014.5
20260902124004 67 184 0.9 3.5 0.00 0.01 0.01 89 1014.5
20260902123929 67 184 0.9 3.5 0.00 0.01 0.01 89 1014.5
20260902123757 67 184 0.9 3.5 0.00 0.01 0.01 89 1014.4
20260902123702 67 184 0.9 3.5 0.00 0.01 0.01 90 1014.4
20260902123607 67 184 1.7 3.5 0.00 0.01 0.01 89 1014.4
20260902123512 67 184 1.7 3.5 0.00 0.01 0.01 89 1014.5
20260902123417 67 184 1.7 3.5 0.00 0.01 0.01 89 1014.4
20260902123301 67 184 2.6 3.5 0.00 0.01 0.01 89 1014.5
20260902123210 67 184 1.7 3.5 0.00 0.01 0.01 89 1014.5
20260902123114 67 184 1.7 3.5 0.00 0.01 0.01 89 1014.4
20260902123040 67 183 1.7 2.6 0.00 0.01 0.01 89 1014.4
20260902122857 67 183 1.7 3.5 0.00 0.01 0.01 89 1014.3
20260902122802 67 183 1.7 3.5 0.00 0.01 0.01 89 1014.4
20260902122706 67 183 1.7 3.5 0.00 0.01 0.01 89 1014.3
20260902122610 67 183 1.7 3.5 0.00 0.01 0.01 89 1014.3
20260902122459 67 183 1.7 3.5 0.00 0.01 0.01 89 1014.3
20260902122404 67 183 1.7 3.5 0.00 0.01 0.01 89 1014.3
20260902122328 67 183 1.7 3.5 0.00 0.01 0.01 89 1014.3
20260902122232 67 184 1.7 3.5 0.00 0.01 0.01 89 1014.3
20260902122056 67 201 1.7 3.5 0.00 0.01 0.01 89 1014.5
20260902122021 67 202 1.7 3.5 0.00 0.01 0.01 89 1014.5
20260902121905 67 211 1.7 3.5 0.00 0.01 0.01 89 1014.5
20260902121834 67 211 1.7 3.5 0.00 0.01 0.01 89 1014.5
20260902121717 67 211 1.7 2.6 0.00 0.01 0.01 89 1014.5
20260902121555 67 211 1.7 2.6 0.00 0.01 0.01 89 1014.6
20260902121521 67 211 1.7 2.6 0.00 0.01 0.01 89 1014.6
20260902121359 67 211 2.6 3.5 0.00 0.01 0.01 89 1014.7
20260902121304 67 211 2.6 3.5 0.00 0.01 0.01 89 1014.8
20260902121213 67 212 1.7 3.5 0.00 0.01 0.01 89 1014.8
20260902121058 67 212 1.7 3.5 0.00 0.01 0.01 89 1014.8
20260902121003 67 211 1.7 3.5 0.00 0.01 0.01 89 1014.7
20260902120908 67 211 1.7 3.5 0.00 0.01 0.01 89 1014.7
20260902120813 67 212 1.7 3.5 0.00 0.01 0.01 89 1014.7
20260902120718 67 212 1.7 3.5 0.00 0.01 0.01 89 1014.5
20260902120606 67 212 1.7 3.5 0.00 0.01 0.01 89 1014.5
20260902120511 67 227 0.9 2.6 0.00 0.01 0.01 89 1014.5
20260902120417 67 227 0.0 2.6 0.00 0.01 0.01 89 1014.6
20260902120255 67 227 0.0 2.6 0.00 0.01 0.01 89 1014.6
20260902120200 67 227 0.9 2.6 0.00 0.01 0.01 89 1014.8
20260902120125 67 227 0.9 2.6 0.00 0.01 0.01 89 1014.8
20260902120009 67 227 1.7 2.6 0.00 0.01 0.01 89 1014.8
20260902115918 67 227 1.7 2.6 0.00 0.01 0.01 89 1014.7
20260902115842 67 227 1.7 2.6 0.00 0.01 0.01 89 1014.8
20260902115658 66 229 1.7 2.6 0.00 0.01 0.01 89 1014.6
20260902115603 67 229 1.7 2.6 0.00 0.01 0.01 89 1014.7
20260902115508 66 229 1.7 2.6 0.00 0.01 0.01 89 1014.7
20260902115413 67 229 1.7 2.6 0.00 0.01 0.01 89 1014.6
20260902115306 66 229 1.7 2.6 0.00 0.01 0.01 89 1014.6
20260902115207 66 255 1.7 2.6 0.00 0.01 0.01 89 1014.6
20260902115112 67 261 1.7 3.5 0.00 0.01 0.01 89 1014.7
20260902115017 66 265 0.9 3.5 0.00 0.01 0.01 89 1014.8
20260902114900 67 265 0.9 3.5 0.00 0.01 0.01 89 1014.9
20260902114824 67 266 0.9 3.5 0.00 0.01 0.01 89 1014.9
20260902114708 67 267 0.9 3.5 0.00 0.01 0.01 89 1014.9
20260902114557 67 266 1.7 3.5 0.00 0.01 0.01 89 1015.0
20260902114501 67 266 2.6 3.5 0.00 0.01 0.01 89 1015.0
20260902114406 67 267 2.6 3.5 0.00 0.01 0.01 89 1015.0
20260902114311 67 266 2.6 3.5 0.00 0.01 0.01 89 1015.0
20260902114156 67 269 1.7 3.5 0.00 0.01 0.01 89 1014.9
20260902114105 67 237 1.7 3.5 0.00 0.01 0.01 89 1014.9
20260902114010 67 237 1.7 3.5 0.00 0.01 0.01 89 1014.9
20260902113914 67 236 1.7 3.5 0.00 0.01 0.01 89 1014.8
20260902113819 67 236 1.7 3.5 0.00 0.01 0.01 89 1014.8
20260902113657 67 240 1.7 3.5 0.00 0.01 0.01 89 1014.8
20260902113602 67 240 1.7 3.5 0.00 0.01 0.01 89 1014.7
20260902113511 67 240 0.9 3.5 0.00 0.01 0.01 89 1014.7
20260902113356 67 241 0.0 3.5 0.00 0.01 0.01 89 1014.7
20260902113301 67 241 0.9 3.5 0.00 0.01 0.01 89 1014.8
20260902113206 67 241 1.7 3.5 0.00 0.01 0.01 89 1014.8
20260902113111 67 241 1.7 3.5 0.00 0.01 0.01 89 1014.8
20260902112955 67 241 1.7 3.5 0.00 0.01 0.01 89 1014.8
20260902112904 67 240 1.7 3.5 0.00 0.01 0.01 89 1014.8
20260902112827 67 238 1.7 3.5 0.00 0.01 0.01 89 1014.8
20260902112711 67 238 1.7 3.5 0.00 0.01 0.01 89 1014.8
20260902112556 67 236 2.6 3.5 0.00 0.01 0.01 89 1014.9
20260902112521 67 236 1.7 3.5 0.00 0.01 0.01 89 1014.8
20260902112405 67 236 1.7 2.6 0.00 0.01 0.01 89 1014.8
20260902112310 67 236 1.7 2.6 0.00 0.01 0.01 89 1014.8
20260902112219 67 236 1.7 2.6 0.00 0.01 0.01 89 1014.7
20260902112103 67 236 0.9 2.6 0.00 0.01 0.01 89 1014.7
20260902112008 67 236 0.9 2.6 0.00 0.01 0.01 89 1014.7
20260902111913 67 236 0.9 2.6 0.00 0.01 0.01 89 1014.6
20260902111758 67 236 0.9 2.6 0.00 0.01 0.01 89 1014.6
20260902111703 67 248 0.9 2.6 0.00 0.01 0.01 89 1014.6
20260902111632 67 248 0.9 2.6 0.00 0.01 0.01 89 1014.6
20260902111456 67 252 1.7 2.6 0.00 0.01 0.01 89 1014.6
20260902111421 67 252 0.9 2.6 0.00 0.01 0.01 89 1014.6
20260902111325 67 252 0.9 3.5 0.00 0.01 0.01 89 1014.6
20260902111209 67 252 0.0 3.5 0.00 0.01 0.01 89 1014.6
20260902111113 67 252 0.9 3.5 0.00 0.01 0.01 89 1014.6
20260902110958 67 252 1.7 3.5 0.00 0.01 0.01 89 1014.6
20260902110906 67 252 1.7 3.5 0.00 0.01 0.01 89 1014.6
20260902110811 67 252 1.7 3.5 0.00 0.01 0.01 89 1014.6
20260902110656 67 252 1.7 3.5 0.00 0.01 0.01 89 1014.5
20260902110621 67 252 1.7 3.5 0.00 0.01 0.01 89 1014.5
20260902110459 67 252 1.7 3.5 0.00 0.01 0.01 89 1014.5
20260902110404 67 265 1.7 2.6 0.00 0.01 0.01 89 1014.4
20260902110333 67 265 1.7 2.6 0.00 0.01 0.01 89 1014.4
20260902110236 67 267 1.7 2.6 0.00 0.01 0.01 89 1014.4
20260902110119 67 267 1.7 2.6 0.00 0.01 0.01 89 1014.5
20260902105957 67 277 1.7 2.6 0.00 0.01 0.01 89 1014.5
20260902105901 67 279 1.7 2.6 0.00 0.01 0.01 89 1014.5
20260902105804 67 281 1.7 2.6 0.00 0.01 0.01 89 1014.6
20260902105709 67 295 1.7 2.6 0.00 0.01 0.01 89 1014.6
20260902105618 67 296 1.7 2.6 0.00 0.01 0.01 89 1014.6
20260902105502 67 295 0.9 2.6 0.00 0.01 0.01 89 1014.5
20260902105407 67 299 1.7 4.3 0.00 0.01 0.01 89 1014.5
20260902105311 67 300 1.7 4.3 0.00 0.01 0.01 89 1014.6
20260902105157 67 302 1.7 4.3 0.00 0.01 0.01 89 1014.7
20260902105101 67 300 0.9 4.3 0.00 0.01 0.01 89 1014.7
20260902105009 67 300 1.7 4.3 0.00 0.01 0.01 89 1014.7
20260902104934 67 300 1.7 4.3 0.00 0.01 0.01 89 1014.7
20260902104818 67 299 2.6 4.3 0.00 0.01 0.01 89 1014.8
20260902104742 67 296 2.6 4.3 0.00 0.01 0.01 89 1014.7
20260902104559 67 360 2.6 4.3 0.00 0.01 0.01 89 1014.7
20260902104504 67 269 2.6 4.3 0.00 0.01 0.01 89 1014.6
20260902104409 67 276 2.6 4.3 0.00 0.01 0.01 89 1014.6
20260902104318 67 287 2.6 5.2 0.00 0.01 0.01 89 1014.6
20260902104202 67 286 1.7 4.3 0.00 0.01 0.01 89 1014.6
20260902104107 67 282 2.6 7.0 0.00 0.01 0.01 89 1014.6
20260902104012 67 284 2.6 7.0 0.00 0.01 0.01 89 1014.7
20260902103917 67 291 2.6 8.7 0.00 0.01 0.01 89 1014.6
20260902103755 67 265 1.7 8.7 0.00 0.01 0.01 89 1014.5
20260902103724 67 265 1.7 8.7 0.00 0.01 0.01 89 1014.5
20260902103608 67 265 1.7 8.7 0.00 0.01 0.01 89 1014.5
20260902103533 67 265 2.6 8.7 0.00 0.01 0.01 89 1014.5
20260902103357 67 266 2.6 8.7 0.00 0.01 0.01 89 1014.5
20260902103301 67 281 3.5 8.7 0.00 0.01 0.01 89 1014.5
20260902103206 67 290 3.5 8.7 0.00 0.01 0.01 89 1014.5
20260902103110 67 275 2.6 8.7 0.00 0.01 0.01 89 1014.5
20260902102959 67 292 2.6 8.7 0.00 0.01 0.01 89 1014.6
20260902102924 67 291 3.5 8.7 0.00 0.01 0.01 89 1014.6
20260902102807 67 360 4.3 8.7 0.00 0.01 0.01 89 1014.6
20260902102712 67 302 2.6 6.1 0.00 0.01 0.01 89 1014.6
20260902102616 67 271 2.6 6.1 0.00 0.01 0.01 89 1014.6
20260902102500 67 271 2.6 6.1 0.00 0.01 0.01 89 1014.5
20260902102409 67 271 3.5 6.1 0.00 0.01 0.01 89 1014.5
20260902102313 67 275 3.5 5.2 0.00 0.01 0.01 89 1014.6
20260902102157 67 303 2.6 5.2 0.00 0.01 0.01 89 1014.6
20260902102101 67 259 2.6 5.2 0.00 0.01 0.01 89 1014.6
20260902102006 67 252 2.6 5.2 0.00 0.01 0.01 89 1014.6
20260902101931 67 252 2.6 5.2 0.00 0.01 0.01 89 1014.6
20260902101759 67 292 2.6 5.2 0.00 0.01 0.01 89 1014.6
20260902101724 67 270 2.6 5.2 0.00 0.01 0.01 89 1014.5
20260902101608 67 269 3.5 5.2 0.00 0.01 0.01 89 1014.5
20260902101513 67 271 3.5 4.3 0.00 0.01 0.01 89 1014.4
20260902101438 67 294 2.6 4.3 0.00 0.01 0.01 89 1014.3
20260902101342 67 284 2.6 5.2 0.00 0.01 0.01 89 1014.3
20260902101158 67 275 2.6 4.3 0.00 0.01 0.01 89 1014.2
20260902101103 67 267 2.6 4.3 0.00 0.01 0.01 89 1014.2
20260902101012 67 267 2.6 4.3 0.00 0.01 0.01 89 1014.2
20260902100917 67 269 2.6 4.3 0.00 0.01 0.01 89 1014.2
20260902100821 67 269 2.6 4.3 0.00 0.01 0.01 89 1014.2
20260902100659 67 269 2.6 4.3 0.00 0.01 0.01 88 1014.2
20260902100604 67 265 2.6 4.3 0.00 0.01 0.01 88 1014.1
20260902100507 67 264 2.6 4.3 0.00 0.01 0.01 88 1014.1
20260902100356 67 174 2.6 2.6 0.00 0.01 0.01 87 1013.9
20260902100321 67 173 1.7 2.6 0.00 0.01 0.01 87 1013.9
20260902100159 67 174 0.9 2.6 0.00 0.01 0.01 87 1013.8
20260902100104 67 173 0.0 1.7 0.00 0.01 0.01 87 1013.7
20260902100009 67 173 0.9 1.7 0.00 0.01 0.01 87 1013.7
20260902095913 67 173 0.9 1.7 0.00 0.01 0.01 87 1013.7
20260902095802 67 173 0.9 1.7 0.00 0.01 0.01 87 1013.4
20260902095707 67 173 0.9 1.7 0.00 0.01 0.01 87 1013.4
20260902095612 67 173 0.0 1.7 0.00 0.01 0.01 87 1013.3
20260902095517 67 173 0.0 1.7 0.00 0.01 0.01 87 1013.4
20260902095442 67 173 0.0 1.7 0.00 0.01 0.01 87 1013.3
20260902095259 67 173 0.9 1.7 0.00 0.01 0.01 87 1013.1
20260902095202 67 173 0.9 1.7 0.00 0.01 0.01 87 1013.1
20260902095111 67 173 0.9 1.7 0.00 0.01 0.01 87 1013.1
20260902095016 67 173 0.9 1.7 0.00 0.01 0.01 87 1013.1
20260902094859 67 173 0.9 2.6 0.00 0.01 0.01 87 1013.1
20260902094804 67 173 0.9 2.6 0.00 0.01 0.01 86 1013.1
20260902094709 68 173 0.9 2.6 0.00 0.01 0.01 86 1013.1
20260902094614 68 173 0.9 2.6 0.00 0.01 0.01 86 1013.1
20260902094503 68 173 0.9 2.6 0.00 0.01 0.01 86 1013.1
20260902094408 68 174 0.9 2.6 0.00 0.01 0.01 86 1013.1
20260902094313 68 174 0.9 2.6 0.00 0.01 0.01 86 1013.1
20260902094217 68 174 1.7 2.6 0.00 0.01 0.01 86 1013.1
20260902094055 68 174 1.7 2.6 0.00 0.01 0.01 86 1013.1
20260902094000 68 174 0.9 3.5 0.00 0.01 0.01 86 1013.0
20260902093909 68 174 0.9 3.5 0.00 0.01 0.01 86 1013.0
20260902093814 68 174 0.9 3.5 0.00 0.01 0.01 86 1013.0
20260902093719 68 173 0.9 3.5 0.00 0.01 0.01 86 1013.1
20260902093602 68 173 1.7 3.5 0.00 0.01 0.01 86 1013.0
20260902093527 68 174 1.7 4.3 0.00 0.01 0.01 86 1013.0
20260902093431 68 174 1.7 5.2 0.00 0.01 0.01 86 1013.0
20260902093334 68 175 1.7 6.1 0.00 0.01 0.01 86 1012.8
20260902093202 68 175 2.6 6.1 0.00 0.01 0.01 86 1012.8
20260902093107 68 175 2.6 6.1 0.00 0.01 0.01 86 1012.8
20260902093012 68 177 1.7 6.1 0.00 0.01 0.01 86 1012.7
20260902092917 68 179 2.6 6.1 0.00 0.01 0.01 86 1012.8
20260902092801 68 179 3.5 6.1 0.00 0.01 0.01 86 1012.8
20260902092706 68 182 4.3 6.1 0.00 0.01 0.01 86 1012.8
20260902092631 68 182 3.5 6.1 0.00 0.01 0.01 86 1012.8
20260902092457 68 183 3.5 6.1 0.00 0.01 0.01 86 1013.0
20260902092401 68 171 4.3 5.2 0.00 0.01 0.01 86 1012.9
20260902092326 68 177 3.5 5.2 0.00 0.01 0.01 86 1012.9
20260902092210 68 188 3.5 5.2 0.00 0.01 0.01 86 1012.9
20260902092135 68 182 2.6 4.3 0.00 0.01 0.01 86 1013.0
20260902092038 68 171 2.6 4.3 0.00 0.01 0.01 86 1013.0
20260902091855 68 180 2.6 4.3 0.00 0.01 0.01 86 1013.0
20260902091800 68 178 2.6 4.3 0.00 0.01 0.01 86 1013.0
20260902091708 68 177 3.5 4.3 0.00 0.01 0.01 85 1013.0
20260902091613 68 178 3.5 4.3 0.00 0.01 0.01 85 1013.0
20260902091458 68 177 2.6 4.3 0.00 0.01 0.01 85 1013.2
20260902091402 68 175 2.6 5.2 0.00 0.01 0.01 85 1013.2
20260902091307 68 173 2.6 4.3 0.00 0.01 0.01 86 1013.2
20260902091156 68 173 2.6 4.3 0.00 0.01 0.01 86 1013.2
20260902091101 68 170 2.6 4.3 0.00 0.01 0.01 86 1013.2
20260902091006 68 172 2.6 4.3 0.00 0.01 0.01 86 1013.2
20260902090930 68 173 2.6 4.3 0.00 0.01 0.01 86 1013.2
20260902090813 68 173 2.6 4.3 0.00 0.01 0.01 86 1013.1
20260902090738 68 195 2.6 4.3 0.00 0.01 0.01 86 1013.1
20260902090642 68 168 2.6 5.2 0.00 0.01 0.01 86 1013.1
20260902090459 68 167 3.5 5.2 0.00 0.01 0.01 87 1013.0
20260902090408 68 163 3.5 4.3 0.00 0.01 0.01 87 1013.0
20260902090313 68 173 3.5 5.2 0.00 0.01 0.01 87 1013.1
20260902090158 68 169 2.6 4.3 0.00 0.01 0.01 87 1013.2
20260902090007 68 171 3.5 5.2 0.00 0.01 0.01 87 1013.3
20260902085855 68 163 2.6 5.2 0.01 0.01 0.01 88 1013.4
20260902085800 68 163 3.5 5.2 0.01 0.01 0.01 88 1013.4
20260902085705 68 165 2.6 5.2 0.01 0.01 0.01 88 1013.5
20260902085610 68 169 2.6 5.2 0.01 0.01 0.01 89 1013.5
20260902085455 68 177 2.6 3.5 0.01 0.01 0.01 89 1013.6
20260902085359 68 177 2.6 3.5 0.01 0.01 0.01 89 1013.7
20260902085308 68 178 1.7 3.5 0.01 0.01 0.01 89 1013.7
20260902085213 68 182 1.7 3.5 0.01 0.01 0.01 89 1013.7
20260902085059 68 182 1.7 3.5 0.01 0.01 0.01 89 1013.7
20260902085003 68 182 1.7 3.5 0.01 0.01 0.01 89 1013.8
20260902084908 68 182 1.7 3.5 0.01 0.01 0.01 89 1013.8
20260902084813 68 182 1.7 3.5 0.01 0.01 0.01 89 1013.8
20260902084702 68 182 2.6 3.5 0.01 0.01 0.01 89 1013.9
20260902084607 68 182 2.6 3.5 0.01 0.01 0.01 89 1013.9
20260902084512 68 182 1.7 3.5 0.01 0.01 0.01 89 1013.9
20260902084417 68 182 2.6 3.5 0.01 0.01 0.01 89 1013.9
20260902084301 68 181 1.7 3.5 0.01 0.01 0.01 89 1013.8
20260902084205 68 181 1.7 3.5 0.01 0.01 0.01 89 1013.7
20260902084114 68 181 0.9 3.5 0.01 0.01 0.01 89 1013.7
20260902084019 68 181 0.9 3.5 0.01 0.01 0.01 89 1013.7
20260902083856 68 181 1.7 3.5 0.01 0.01 0.01 89 1013.7
20260902083821 68 181 1.7 3.5 0.01 0.01 0.01 88 1013.8
20260902083704 68 181 1.7 3.5 0.01 0.01 0.01 88 1013.8
20260902083609 68 181 1.7 2.6 0.01 0.01 0.01 88 1013.8
20260902083458 68 181 1.7 1.7 0.01 0.01 0.01 88 1013.8
20260902083403 68 181 1.7 1.7 0.01 0.01 0.01 88 1013.9
20260902083308 68 181 1.7 1.7 0.01 0.01 0.01 88 1013.9
20260902083213 68 181 1.7 1.7 0.01 0.01 0.01 88 1013.9
20260902083057 68 181 1.7 1.7 0.01 0.01 0.01 88 1014.0
20260902083002 68 181 1.7 1.7 0.01 0.01 0.01 88 1014.0
20260902082911 68 181 1.7 1.7 0.01 0.01 0.01 88 1014.0
20260902082756 68 181 1.7 1.7 0.01 0.01 0.01 88 1014.2
20260902082701 68 181 0.9 1.7 0.01 0.01 0.01 87 1014.1
20260902082605 68 181 0.9 1.7 0.01 0.01 0.01 87 1014.1
20260902082509 68 181 0.0 1.7 0.01 0.01 0.01 87 1014.1
20260902082414 68 181 0.0 2.6 0.01 0.01 0.01 87 1014.1
20260902082308 68 181 0.0 2.6 0.01 0.01 0.01 87 1014.2
20260902082208 68 181 0.0 2.6 0.01 0.01 0.01 87 1014.2
20260902082113 68 181 0.0 3.5 0.01 0.01 0.01 87 1014.2
20260902081958 68 181 0.0 3.5 0.01 0.01 0.01 87 1014.0
20260902081903 68 181 0.0 3.5 0.01 0.01 0.01 87 1014.1
20260902081808 68 181 0.9 3.5 0.01 0.01 0.01 87 1014.1
20260902081656 68 181 0.9 3.5 0.01 0.01 0.01 87 1014.0
20260902081601 68 181 0.9 3.5 0.01 0.01 0.01 87 1014.0
20260902081505 68 181 0.9 3.5 0.01 0.01 0.01 87 1014.0
20260902081410 68 181 1.7 3.5 0.01 0.01 0.01 87 1014.0
20260902081255 68 181 1.7 3.5 0.01 0.01 0.01 87 1013.9
20260902081219 68 192 1.7 3.5 0.01 0.01 0.01 87 1013.9
20260902081106 68 192 1.7 3.5 0.01 0.01 0.01 87 1013.9
20260902081011 68 192 2.6 3.5 0.01 0.01 0.01 87 1013.9
20260902080855 68 193 2.6 3.5 0.01 0.01 0.01 87 1013.9
20260902080819 68 192 2.6 3.5 0.01 0.01 0.01 87 1013.9
20260902080722 68 192 2.6 3.5 0.01 0.01 0.01 87 1013.9
20260902080559 68 192 3.5 3.5 0.01 0.01 0.01 87 1013.9
20260902080508 68 204 3.5 3.5 0.01 0.01 0.01 86 1013.9
20260902080413 69 204 3.5 3.5 0.01 0.01 0.01 87 1013.9
20260902080257 69 204 2.6 3.5 0.01 0.01 0.01 87 1013.9
20260902080202 69 203 2.6 3.5 0.01 0.01 0.01 87 1014.1
20260902080127 69 204 1.7 3.5 0.01 0.01 0.01 86 1014.1
20260902080011 69 200 2.6 3.5 0.00 0.00 0.00 86 1014.0
20260902075935 69 200 1.7 3.5 0.00 0.00 0.00 86 1014.0
20260902075803 69 200 1.7 4.3 0.00 0.00 0.00 86 1014.1
20260902075708 69 200 1.7 4.3 0.00 0.00 0.00 85 1014.1
20260902075613 69 200 1.7 4.3 0.00 0.00 0.00 85 1014.0
20260902075458 69 200 2.6 4.3 0.00 0.00 0.00 85 1014.0
20260902075403 69 200 2.6 5.2 0.00 0.00 0.00 85 1014.0
20260902075308 69 200 2.6 5.2 0.00 0.00 0.00 85 1014.0
20260902075217 69 199 2.6 5.2 0.00 0.00 0.00 85 1014.0
20260902075121 69 198 2.6 5.2 0.00 0.00 0.00 85 1014.0
20260902074959 69 197 2.6 5.2 0.00 0.00 0.00 85 1014.0
20260902074923 69 197 2.6 5.2 0.00 0.00 0.00 85 1014.0
20260902074807 69 207 3.5 5.2 0.00 0.00 0.00 85 1014.0
20260902074732 69 209 3.5 6.1 0.00 0.00 0.00 85 1014.1
20260902074556 69 200 2.6 6.1 0.00 0.00 0.00 86 1014.1
20260902074525 69 226 2.6 6.1 0.00 0.00 0.00 86 1014.1
20260902074429 69 226 2.6 6.1 0.00 0.00 0.00 86 1014.1
20260902074313 69 226 2.6 6.1 0.00 0.00 0.00 86 1014.2
20260902074158 69 216 3.5 6.1 0.00 0.00 0.00 86 1014.1
20260902074103 69 217 3.5 6.1 0.00 0.00 0.00 87 1014.1
20260902074026 69 213 4.3 6.1 0.00 0.00 0.00 87 1014.1
20260902073910 69 247 4.3 7.8 0.00 0.00 0.00 87 1014.1
20260902073759 68 217 4.3 7.8 0.00 0.00 0.00 87 1014.1
20260902073704 68 208 4.3 7.8 0.00 0.00 0.00 88 1014.3
20260902073608 68 196 4.3 7.8 0.00 0.00 0.00 88 1014.3
20260902073512 68 219 3.5 7.8 0.00 0.00 0.00 89 1014.3
20260902073357 68 218 4.3 7.8 0.00 0.00 0.00 89 1014.5
20260902073322 68 217 5.2 7.8 0.00 0.00 0.00 89 1014.5
20260902073210 68 195 5.2 7.8 0.00 0.00 0.00 89 1014.5
20260902073114 68 238 5.2 7.8 0.00 0.00 0.00 89 1014.5
20260902072959 68 257 4.3 7.8 0.00 0.00 0.00 90 1014.5
20260902072903 68 254 3.5 5.2 0.00 0.00 0.00 90 1014.5
20260902072808 68 221 3.5 5.2 0.00 0.00 0.00 90 1014.5
20260902072713 68 217 3.5 5.2 0.00 0.00 0.00 90 1014.5
20260902072602 68 232 3.5 5.2 0.00 0.00 0.00 90 1014.5
20260902072507 68 224 2.6 5.2 0.00 0.00 0.00 90 1014.5
20260902072412 68 223 3.5 5.2 0.00 0.00 0.00 90 1014.5
20260902072317 68 237 3.5 5.2 0.00 0.00 0.00 90 1014.6
20260902072200 68 234 3.5 5.2 0.00 0.00 0.00 90 1014.6
20260902072103 68 235 3.5 5.2 0.00 0.00 0.00 90 1014.6
20260902072012 68 237 2.6 5.2 0.00 0.00 0.00 90 1014.6
20260902071916 68 217 2.6 4.3 0.00 0.00 0.00 89 1014.6
20260902071755 68 217 3.5 4.3 0.00 0.00 0.00 89 1014.6
20260902071700 68 215 3.5 4.3 0.00 0.00 0.00 89 1014.6
20260902071603 68 215 3.5 4.3 0.00 0.00 0.00 89 1014.5
20260902071508 68 215 3.5 4.3 0.00 0.00 0.00 89 1014.5
20260902071357 68 215 3.5 4.3 0.00 0.00 0.00 89 1014.5
20260902071300 68 221 3.5 4.3 0.00 0.00 0.00 89 1014.6
20260902071205 68 223 3.5 4.3 0.00 0.00 0.00 89 1014.6
20260902071110 68 225 3.5 4.3 0.00 0.00 0.00 89 1014.7
20260902071035 68 225 3.5 4.3 0.00 0.00 0.00 89 1014.7
20260902070859 68 230 3.5 4.3 0.00 0.00 0.00 89 1014.8
20260902070824 68 230 2.6 3.5 0.00 0.00 0.00 89 1014.8
20260902070708 68 230 2.6 3.5 0.00 0.00 0.00 89 1014.8
20260902070618 68 232 2.6 3.5 0.00 0.00 0.00 88 1014.9
20260902070455 68 232 2.6 3.5 0.00 0.00 0.00 88 1015.0
20260902070420 68 232 2.6 4.3 0.00 0.00 0.00 88 1015.0
20260902070258 68 232 1.7 6.1 0.00 0.00 0.00 88 1014.9
20260902070203 68 232 1.7 6.1 0.00 0.00 0.00 88 1015.0
20260902070107 68 232 1.7 6.1 0.00 0.00 0.00 88 1015.0
20260902065956 67 232 1.7 6.1 0.00 0.00 0.00 89 1015.0
20260902065921 67 232 1.7 6.1 0.00 0.00 0.00 89 1015.0
20260902065759 67 232 2.6 6.1 0.00 0.00 0.00 89 1015.1
20260902065704 67 232 2.6 6.1 0.00 0.00 0.00 89 1015.1
20260902065609 67 232 2.6 6.1 0.00 0.00 0.00 89 1015.1
20260902065457 67 243 3.5 6.1 0.00 0.00 0.00 89 1015.1
20260902065423 67 246 2.6 6.1 0.00 0.00 0.00 89 1015.1
20260902065307 67 233 2.6 3.5 0.00 0.00 0.00 89 1015.1
20260902065212 67 243 2.6 3.5 0.00 0.00 0.00 89 1015.2
20260902065116 66 252 1.7 3.5 0.00 0.00 0.00 89 1015.2
20260902065020 66 257 0.9 3.5 0.00 0.00 0.00 90 1015.2
20260902064858 66 257 0.9 3.5 0.00 0.00 0.00 90 1015.2
20260902064805 66 257 0.9 3.5 0.00 0.00 0.00 90 1015.2
20260902064709 66 257 1.7 3.5 0.00 0.00 0.00 90 1015.2
20260902064613 66 257 1.7 3.5 0.00 0.00 0.00 89 1015.2
20260902064519 66 257 1.7 3.5 0.00 0.00 0.00 90 1015.1
20260902064356 66 257 1.7 3.5 0.00 0.00 0.00 90 1015.2
20260902064301 66 258 1.7 3.5 0.00 0.00 0.00 90 1015.1
20260902064210 66 258 1.7 3.5 0.00 0.00 0.00 90 1015.1
20260902064135 66 258 1.7 3.5 0.00 0.00 0.00 90 1015.1
20260902064020 66 259 2.6 3.5 0.00 0.00 0.00 90 1015.1
20260902063858 66 277 2.6 3.5 0.00 0.00 0.00 90 1015.1
20260902063803 66 82 2.6 3.5 0.00 0.00 0.00 90 1015.1
20260902063708 66 82 1.7 3.5 0.00 0.00 0.00 90 1015.1
20260902063557 66 82 1.7 3.5 0.00 0.00 0.00 90 1015.2
20260902063502 66 82 1.7 3.5 0.00 0.00 0.00 90 1015.1
20260902063426 66 82 1.7 3.5 0.00 0.00 0.00 90 1015.1
20260902063330 66 82 1.7 3.5 0.00 0.00 0.00 90 1015.1
20260902063214 66 82 1.7 3.5 0.00 0.00 0.00 90 1014.9
20260902063059 66 82 2.6 3.5 0.00 0.00 0.00 90 1014.9
20260902063003 66 82 2.6 3.5 0.00 0.00 0.00 90 1014.9
20260902062912 66 82 2.6 3.5 0.00 0.00 0.00 90 1014.9
20260902062757 66 82 2.6 3.5 0.00 0.00 0.00 90 1014.8
20260902062702 66 82 2.6 2.6 0.00 0.00 0.00 90 1014.8
20260902062607 66 82 1.7 2.6 0.00 0.00 0.00 90 1014.8
20260902062510 66 82 1.7 2.6 0.00 0.00 0.00 90 1014.8
20260902062355 66 82 1.7 2.6 0.00 0.00 0.00 90 1014.8
20260902062306 66 82 1.7 2.6 0.00 0.00 0.00 90 1014.7
20260902062207 66 82 0.9 1.7 0.00 0.00 0.00 89 1014.7
20260902062132 66 82 0.9 1.7 0.00 0.00 0.00 89 1014.7
20260902062036 66 82 0.9 1.7 0.00 0.00 0.00 89 1014.6
20260902061939 66 82 0.9 2.6 0.00 0.00 0.00 89 1014.6
20260902061756 66 82 0.9 2.6 0.00 0.00 0.00 89 1014.5
20260902061720 66 82 0.9 2.6 0.00 0.00 0.00 89 1014.5
20260902061558 66 82 0.9 2.6 0.00 0.00 0.00 89 1014.4
20260902061507 66 82 0.9 2.6 0.00 0.00 0.00 89 1014.4
20260902061412 66 82 1.7 2.6 0.00 0.00 0.00 89 1014.4
20260902061257 66 82 1.7 2.6 0.00 0.00 0.00 89 1014.3
20260902061221 66 82 1.7 2.6 0.00 0.00 0.00 89 1014.2
20260902061105 66 82 1.7 2.6 0.00 0.00 0.00 89 1014.2
20260902061010 66 82 1.7 2.6 0.00 0.00 0.00 89 1014.1
20260902060859 66 82 0.9 1.7 0.00 0.00 0.00 88 1014.1
20260902060823 66 82 0.0 1.7 0.00 0.00 0.00 88 1014.0
20260902060706 66 82 0.0 1.7 0.00 0.00 0.00 88 1014.0
20260902060611 66 82 0.0 1.7 0.00 0.00 0.00 88 1013.9
20260902060516 66 82 0.0 1.7 0.00 0.00 0.00 88 1013.7
20260902060400 66 82 0.9 1.7 0.00 0.00 0.00 88 1013.6
20260902060305 66 82 0.9 1.7 0.00 0.00 0.00 88 1013.6
20260902060230 66 82 0.9 1.7 0.00 0.00 0.00 88 1013.6
20260902060058 66 82 0.9 1.7 0.00 0.00 0.00 88 1013.7
20260902060002 66 82 0.9 1.7 0.00 0.00 0.00 88 1013.7
20260902055928 66 82 0.9 1.7 0.00 0.00 0.00 88 1013.7
20260902055812 66 82 0.9 2.6 0.00 0.00 0.00 88 1013.7
20260902055657 66 82 0.0 2.6 0.00 0.00 0.00 88 1013.7
20260902055621 66 82 0.0 2.6 0.00 0.00 0.00 88 1013.7
20260902055509 66 82 0.0 2.6 0.00 0.00 0.00 88 1013.7
20260902055414 66 82 0.9 2.6 0.00 0.00 0.00 88 1013.7
20260902055259 66 82 0.9 2.6 0.00 0.00 0.00 88 1013.7
20260902055204 66 82 1.7 2.6 0.00 0.00 0.00 88 1013.9
20260902055109 66 82 1.7 2.6 0.00 0.00 0.00 88 1013.9
20260902055034 66 82 1.7 2.6 0.00 0.00 0.00 88 1013.8
20260902054917 66 82 1.7 2.6 0.00 0.00 0.00 88 1014.0
20260902054804 66 82 0.9 2.6 0.00 0.00 0.00 88 1014.1
20260902054707 66 81 0.0 1.7 0.00 0.00 0.00 88 1014.1
20260902054612 66 81 0.9 1.7 0.00 0.00 0.00 88 1014.1
20260902054517 66 81 0.9 1.7 0.00 0.00 0.00 88 1014.3
20260902054401 66 81 0.9 1.7 0.00 0.00 0.00 88 1014.2
20260902054305 66 81 0.9 1.7 0.00 0.00 0.00 88 1014.2
20260902054210 66 81 0.9 1.7 0.00 0.00 0.00 88 1014.4
20260902054059 66 82 0.9 1.7 0.00 0.00 0.00 89 1014.3
20260902054002 66 81 0.9 1.7 0.00 0.00 0.00 89 1014.4
20260902053907 66 81 0.9 1.7 0.00 0.00 0.00 89 1014.4
20260902053831 66 82 0.9 1.7 0.00 0.00 0.00 89 1014.4
20260902053655 66 82 0.9 1.7 0.00 0.00 0.00 89 1014.5
20260902053600 66 81 0.9 1.7 0.00 0.00 0.00 89 1014.4
20260902053509 66 82 0.9 1.7 0.00 0.00 0.00 89 1014.4
20260902053433 66 81 0.0 0.9 0.00 0.00 0.00 89 1014.5
20260902053257 66 81 0.0 0.0 0.00 0.00 0.00 89 1014.6
20260902053222 66 81 0.0 0.0 0.00 0.00 0.00 89 1014.6
20260902053104 66 81 0.0 0.0 0.00 0.00 0.00 89 1014.7
20260902053009 66 81 0.0 0.0 0.00 0.00 0.00 89 1014.7
20260902052934 66 81 0.0 0.0 0.00 0.00 0.00 89 1014.7
20260902052802 66 81 0.0 0.0 0.00 0.00 0.00 89 1014.8
20260902052707 66 81 0.0 0.0 0.00 0.00 0.00 89 1014.8
20260902052612 66 81 0.0 0.0 0.00 0.00 0.00 89 1014.7
20260902052457 66 81 0.0 0.0 0.00 0.00 0.00 89 1014.8
20260902052402 66 81 0.0 0.0 0.00 0.00 0.00 89 1014.8
20260902052325 66 81 0.0 0.0 0.00 0.00 0.00 89 1014.8
20260902052229 66 81 0.0 0.0 0.00 0.00 0.00 89 1014.8
20260902052118 66 81 0.0 0.0 0.00 0.00 0.00 89 1014.8
20260902051956 66 81 0.0 0.9 0.00 0.00 0.00 89 1014.8
20260902051901 66 81 0.0 0.9 0.00 0.00 0.00 89 1014.8
20260902051804 66 81 0.0 1.7 0.00 0.00 0.00 89 1014.8
20260902051709 66 81 0.0 1.7 0.00 0.00 0.00 89 1014.8
20260902051614 66 81 0.0 1.7 0.00 0.00 0.00 89 1014.8
20260902051503 66 81 0.0 1.7 0.00 0.00 0.00 89 1014.8
20260902051428 66 81 0.0 1.7 0.00 0.00 0.00 89 1014.8
20260902051312 66 81 0.0 1.7 0.00 0.00 0.00 89 1014.8
20260902051217 66 81 0.0 1.7 0.00 0.00 0.00 89 1014.8
20260902051101 66 81 0.9 1.7 0.00 0.00 0.00 89 1014.7
20260902051006 66 81 0.9 1.7 0.00 0.00 0.00 89 1014.7
20260902050910 66 81 0.0 0.9 0.00 0.00 0.00 89 1014.7
20260902050819 66 81 0.0 0.0 0.00 0.00 0.00 89 1014.6
20260902050656 66 81 0.0 0.0 0.00 0.00 0.00 89 1014.7
20260902050620 66 81 0.0 0.0 0.00 0.00 0.00 89 1014.7
20260902050458 66 81 0.0 0.0 0.00 0.00 0.00 89 1014.6
20260902050400 66 81 0.0 0.0 0.00 0.00 0.00 89 1014.6
20260902050325 66 81 0.0 0.0 0.00 0.00 0.00 89 1014.6
20260902050229 66 81 0.0 0.0 0.00 0.00 0.00 89 1014.6
20260902050129 66 81 0.0 0.0 0.00 0.00 0.00 89 1014.6
20260902050013 66 81 0.0 0.0 0.00 0.00 0.00 89 1014.5
20260902045919 66 81 0.0 0.0 0.00 0.00 0.00 89 1014.4
20260902045757 66 81 0.0 0.0 0.00 0.00 0.00 89 1014.4
20260902045701 66 81 0.0 0.0 0.00 0.00 0.00 89 1014.3
20260902045607 66 81 0.0 0.0 0.00 0.00 0.00 89 1014.2
20260902045517 66 81 0.0 0.0 0.00 0.00 0.00 89 1014.2
20260902045354 66 81 0.0 0.0 0.00 0.00 0.00 89 1014.2
20260902045320 66 81 0.0 0.0 0.00 0.00 0.00 89 1014.2
20260902045157 66 81 0.0 0.0 0.00 0.00 0.00 88 1014.3
20260902045101 66 81 0.0 0.0 0.00 0.00 0.00 88 1014.2
20260902045007 66 81 0.0 0.0 0.00 0.00 0.00 88 1014.2
20260902044916 66 81 0.0 0.0 0.00 0.00 0.00 88 1014.2
20260902044842 66 81 0.0 0.0 0.00 0.00 0.00 88 1014.3
20260902044659 66 81 0.0 0.0 0.00 0.00 0.00 88 1014.2
20260902044603 66 81 0.0 0.0 0.00 0.00 0.00 88 1014.2
20260902044509 66 81 0.0 0.0 0.00 0.00 0.00 88 1014.2
20260902044414 66 81 0.0 0.0 0.00 0.00 0.00 88 1014.1
20260902044303 66 81 0.0 0.0 0.00 0.00 0.00 88 1014.0
20260902044207 66 81 0.0 0.0 0.00 0.00 0.00 88 1014.0
20260902044112 66 81 0.0 0.0 0.00 0.00 0.00 88 1014.0
20260902044038 66 81 0.0 0.0 0.00 0.00 0.00 88 1014.0
20260902043855 66 81 0.0 0.0 0.00 0.00 0.00 88 1014.1
20260902043821 66 81 0.0 0.0 0.00 0.00 0.00 88 1014.1
20260902043659 66 81 0.0 0.0 0.00 0.00 0.00 88 1014.0
20260902043628 66 81 0.0 0.0 0.00 0.00 0.00 88 1014.0
20260902043532 66 81 0.0 0.0 0.00 0.00 0.00 88 1014.0
20260902043416 66 81 0.0 0.0 0.00 0.00 0.00 88 1013.9
20260902043319 66 81 0.0 0.0 0.00 0.00 0.00 88 1013.9
20260902043157 66 81 0.0 0.0 0.00 0.00 0.00 88 1013.9
20260902043102 66 81 0.0 0.0 0.00 0.00 0.00 88 1013.9
20260902043007 66 81 0.0 0.0 0.00 0.00 0.00 88 1014.0
20260902042856 66 81 0.0 0.0 0.00 0.00 0.00 87 1013.9
20260902042801 66 81 0.0 0.0 0.00 0.00 0.00 87 1014.0
20260902042706 66 81 0.0 0.0 0.00 0.00 0.00 87 1013.9
20260902042610 66 81 0.0 0.0 0.00 0.00 0.00 87 1013.9
20260902042517 66 81 0.0 0.0 0.00 0.00 0.00 87 1013.9
20260902042355 66 81 0.0 0.0 0.00 0.00 0.00 87 1013.9
20260902042308 66 81 0.0 0.0 0.00 0.00 0.00 87 1013.9
20260902042228 66 81 0.0 0.0 0.00 0.00 0.00 87 1013.9
20260902042112 66 81 0.0 0.0 0.00 0.00 0.00 87 1013.9
20260902042038 66 81 0.0 0.0 0.00 0.00 0.00 87 1013.9
20260902041855 66 81 0.0 0.0 0.00 0.00 0.00 87 1013.9
20260902041800 66 81 0.0 0.9 0.00 0.00 0.00 87 1014.0
20260902041725 66 81 0.0 1.7 0.00 0.00 0.00 87 1013.9
20260902041612 66 81 0.0 1.7 0.00 0.00 0.00 87 1013.9
20260902041539 66 81 0.0 1.7 0.00 0.00 0.00 87 1013.9
20260902041355 66 81 0.0 1.7 0.00 0.00 0.00 87 1013.8
20260902041300 66 81 0.0 1.7 0.00 0.00 0.00 87 1013.8
20260902041205 66 81 0.0 1.7 0.00 0.00 0.00 87 1013.8
20260902041110 66 81 0.0 1.7 0.00 0.00 0.00 87 1013.8
20260902040959 66 81 0.9 1.7 0.00 0.00 0.00 87 1013.8
20260902040904 66 81 1.7 1.7 0.00 0.00 0.00 87 1013.9
20260902040809 66 81 0.9 1.7 0.00 0.00 0.00 87 1013.9
20260902040734 66 81 0.9 1.7 0.00 0.00 0.00 87 1013.9
20260902040618 66 81 0.0 0.0 0.00 0.00 0.00 87 1013.7
20260902040502 66 81 0.0 0.0 0.00 0.00 0.00 87 1013.7
20260902040427 66 81 0.0 0.0 0.00 0.00 0.00 87 1013.8
20260902040331 66 81 0.0 0.0 0.00 0.00 0.00 87 1013.8
20260902040218 66 81 0.0 0.0 0.00 0.00 0.00 87 1013.8
20260902040006 66 81 0.0 0.0 0.00 0.00 0.00 87 1013.9
20260902035911 66 81 0.0 0.9 0.00 0.00 0.00 87 1013.9
20260902035755 66 81 0.0 0.9 0.00 0.00 0.00 87 1013.9
20260902035720 67 81 0.0 0.9 0.00 0.00 0.00 86 1013.9
20260902035604 67 81 0.0 0.9 0.00 0.00 0.00 87 1013.9
20260902035513 67 81 0.0 0.9 0.00 0.00 0.00 86 1013.9
20260902035417 67 81 0.0 0.9 0.00 0.00 0.00 86 1013.9
20260902035255 67 81 0.0 1.7 0.00 0.00 0.00 86 1014.0
20260902035221 67 81 0.0 1.7 0.00 0.00 0.00 86 1014.0
20260902035059 67 81 0.0 1.7 0.00 0.00 0.00 86 1014.1
20260902035003 67 81 0.0 1.7 0.00 0.00 0.00 86 1014.1
20260902034913 67 81 0.9 1.7 0.00 0.00 0.00 86 1014.1
20260902034817 67 81 0.9 1.7 0.00 0.00 0.00 86 1014.2
20260902034655 67 81 0.9 1.7 0.00 0.00 0.00 86 1014.3
20260902034600 67 81 0.9 1.7 0.00 0.00 0.00 86 1014.3
20260902034505 67 81 0.9 1.7 0.00 0.00 0.00 86 1014.2
20260902034408 67 81 0.0 0.9 0.00 0.00 0.00 86 1014.2
20260902034317 67 81 0.0 0.0 0.00 0.00 0.00 86 1014.2
20260902034154 67 81 0.0 0.0 0.00 0.00 0.00 86 1014.4
20260902034121 67 81 0.0 0.0 0.00 0.00 0.00 86 1014.4
20260902033959 67 81 0.0 0.0 0.00 0.00 0.00 86 1014.5
20260902033904 67 81 0.0 0.0 0.00 0.00 0.00 86 1014.5
20260902033809 67 81 0.0 0.0 0.00 0.00 0.00 86 1014.5
20260902033718 67 81 0.0 0.0 0.00 0.00 0.00 86 1014.5
20260902033555 67 81 0.0 0.0 0.00 0.00 0.00 85 1014.6
20260902033500 67 81 0.0 0.0 0.00 0.00 0.00 85 1014.6
20260902033405 67 81 0.0 0.0 0.00 0.00 0.00 85 1014.6
20260902033330 67 81 0.0 0.0 0.00 0.00 0.00 85 1014.6
20260902033214 67 81 0.0 0.0 0.00 0.00 0.00 85 1014.6
20260902033102 67 81 0.0 0.0 0.00 0.00 0.00 85 1014.7
20260902033008 67 81 0.0 0.0 0.00 0.00 0.00 85 1014.7
20260902032913 67 81 0.0 0.0 0.00 0.00 0.00 85 1014.7
20260902032838 67 81 0.0 0.0 0.00 0.00 0.00 85 1014.7
20260902032654 67 81 0.0 0.0 0.00 0.00 0.00 85 1014.8
20260902032600 67 81 0.0 0.0 0.00 0.00 0.00 85 1014.7
20260902032524 67 81 0.0 0.0 0.00 0.00 0.00 85 1014.6
20260902032412 67 81 0.0 0.0 0.00 0.00 0.00 85 1014.6
20260902032255 67 81 0.0 0.0 0.00 0.00 0.00 85 1014.6
20260902032219 67 81 0.0 0.0 0.00 0.00 0.00 85 1014.6
20260902032057 67 81 0.0 0.0 0.00 0.00 0.00 85 1014.6
20260902032021 67 81 0.0 0.0 0.00 0.00 0.00 85 1014.5
20260902031905 68 81 0.0 0.0 0.00 0.00 0.00 85 1014.6
20260902031810 67 81 0.0 0.0 0.00 0.00 0.00 85 1014.6
20260902031659 68 81 0.0 0.0 0.00 0.00 0.00 85 1014.5
20260902031604 68 81 0.0 0.0 0.00 0.00 0.00 85 1014.5
20260902031529 68 81 0.0 0.0 0.00 0.00 0.00 85 1014.5
20260902031413 68 81 0.0 0.9 0.00 0.00 0.00 85 1014.5
20260902031257 68 81 0.0 0.9 0.00 0.00 0.00 85 1014.5
20260902031202 68 81 0.0 1.7 0.00 0.00 0.00 85 1014.5
20260902031110 68 81 0.0 1.7 0.00 0.00 0.00 85 1014.5
20260902031017 68 81 0.0 1.7 0.00 0.00 0.00 86 1014.5
20260902030855 68 81 0.0 1.7 0.00 0.00 0.00 86 1014.5
20260902030800 68 81 0.0 1.7 0.00 0.00 0.00 86 1014.5
20260902030724 68 81 0.0 1.7 0.00 0.00 0.00 85 1014.5
20260902030609 68 81 0.9 1.7 0.00 0.00 0.00 85 1014.5
20260902030533 68 81 0.9 1.7 0.00 0.00 0.00 85 1014.5
20260902030421 68 81 0.9 1.7 0.00 0.00 0.00 85 1014.5
20260902030259 68 81 0.0 0.0 0.00 0.00 0.00 85 1014.5
20260902030204 68 81 0.0 0.0 0.00 0.00 0.00 85 1014.4
20260902030129 68 81 0.0 0.0 0.00 0.00 0.00 85 1014.4
20260902030032 68 81 0.0 0.0 0.00 0.00 0.00 85 1014.4
20260902025935 68 81 0.0 0.0 0.00 0.00 0.00 85 1014.4
20260902025757 68 81 0.0 0.0 0.00 0.00 0.00 85 1014.4
20260902025702 69 81 0.0 0.0 0.00 0.00 0.00 85 1014.4
20260902025611 69 81 0.0 0.0 0.00 0.00 0.00 85 1014.4
20260902025456 69 81 0.0 0.0 0.00 0.00 0.00 84 1014.4
20260902025400 69 81 0.0 0.0 0.00 0.00 0.00 84 1014.4
20260902025306 69 81 0.0 0.0 0.00 0.00 0.00 84 1014.4
20260902025209 69 81 0.0 0.0 0.00 0.00 0.00 84 1014.4
20260902025114 69 81 0.0 0.0 0.00 0.00 0.00 83 1014.4
20260902025019 69 81 0.0 0.0 0.00 0.00 0.00 83 1014.4
20260902024926 69 81 0.0 0.0 0.00 0.00 0.00 83 1014.2
20260902024829 69 81 0.0 0.0 0.00 0.00 0.00 83 1014.2
20260902024713 69 81 0.0 0.0 0.00 0.00 0.00 83 1014.2
20260902024617 69 81 0.0 0.0 0.00 0.00 0.00 83 1014.2
20260902024455 69 81 0.0 0.0 0.00 0.00 0.00 83 1014.1
20260902024400 69 81 0.0 0.0 0.00 0.00 0.00 83 1014.1
20260902024305 69 81 0.0 0.0 0.00 0.00 0.00 83 1014.1
20260902024213 69 81 0.0 0.0 0.00 0.00 0.00 82 1014.1
20260902024119 69 81 0.0 0.0 0.00 0.00 0.00 82 1014.2
20260902023956 69 81 0.0 0.0 0.00 0.00 0.00 82 1014.2
20260902023902 69 81 0.0 0.0 0.00 0.00 0.00 82 1014.2
20260902023807 69 81 0.0 0.0 0.00 0.00 0.00 82 1014.1
20260902023732 69 81 0.0 0.0 0.00 0.00 0.00 82 1014.1
20260902023617 69 81 0.0 0.0 0.00 0.00 0.00 82 1014.1
20260902023521 69 81 0.0 0.0 0.00 0.00 0.00 81 1014.1
20260902023424 70 81 0.0 0.0 0.00 0.00 0.00 81 1014.1
20260902023307 70 81 0.0 0.0 0.00 0.00 0.00 81 1014.1
20260902023232 70 81 0.0 0.0 0.00 0.00 0.00 81 1014.1
20260902023116 70 81 0.0 0.0 0.00 0.00 0.00 81 1014.2
20260902023021 70 81 0.0 0.0 0.00 0.00 0.00 81 1014.2
20260902022859 70 81 0.0 0.0 0.00 0.00 0.00 81 1014.3
20260902022823 70 81 0.0 0.0 0.00 0.00 0.00 81 1014.2
20260902022711 70 81 0.0 0.0 0.00 0.00 0.00 81 1014.2
20260902022555 70 81 0.0 0.0 0.00 0.00 0.00 81 1014.1
20260902022521 70 81 0.0 0.0 0.00 0.00 0.00 81 1014.1
20260902022425 70 81 0.0 0.0 0.00 0.00 0.00 81 1014.2
20260902022308 70 81 0.0 0.0 0.00 0.00 0.00 81 1014.2
20260902022213 70 81 0.0 0.0 0.00 0.00 0.00 81 1014.2
20260902022102 70 81 0.0 0.0 0.00 0.00 0.00 81 1014.3
20260902022028 70 81 0.0 0.0 0.00 0.00 0.00 81 1014.3
20260902021911 70 81 0.0 0.0 0.00 0.00 0.00 81 1014.3
20260902021817 70 81 0.0 0.0 0.00 0.00 0.00 81 1014.3
20260902021655 71 81 0.0 0.0 0.00 0.00 0.00 81 1014.5
20260902021621 71 81 0.0 0.0 0.00 0.00 0.00 81 1014.5
20260902021459 71 81 0.0 0.0 0.00 0.00 0.00 80 1014.4
20260902021428 71 81 0.0 0.0 0.00 0.00 0.00 80 1014.4
20260902021332 71 81 0.0 0.0 0.00 0.00 0.00 80 1014.4
20260902021156 71 81 0.0 0.0 0.00 0.00 0.00 80 1014.4
20260902021120 71 81 0.0 0.0 0.00 0.00 0.00 80 1014.4
20260902021004 71 81 0.0 0.0 0.00 0.00 0.00 80 1014.3
20260902020909 71 81 0.0 0.0 0.00 0.00 0.00 80 1014.3
20260902020813 71 81 0.0 0.0 0.00 0.00 0.00 80 1014.3
20260902020702 71 81 0.0 0.9 0.00 0.00 0.00 80 1014.3
20260902020628 71 81 0.0 0.9 0.00 0.00 0.00 80 1014.3
20260902020511 71 81 0.0 0.9 0.00 0.00 0.00 80 1014.3
20260902020417 71 81 0.0 1.7 0.00 0.00 0.00 80 1014.3
20260902020255 71 81 0.0 1.7 0.00 0.00 0.00 80 1014.3
20260902020221 71 81 0.0 1.7 0.00 0.00 0.00 80 1014.3
20260902020059 71 81 0.0 1.7 0.00 0.00 0.00 79 1014.4
20260902020008 71 81 0.0 1.7 0.00 0.00 0.00 79 1014.4
20260902015912 71 81 0.0 1.7 0.00 0.00 0.00 79 1014.4
20260902015819 71 81 0.9 1.7 0.00 0.00 0.00 79 1014.3
20260902015656 72 81 0.9 1.7 0.00 0.00 0.00 78 1014.3
20260902015600 72 81 0.9 1.7 0.00 0.00 0.00 78 1014.3
20260902015504 72 81 0.9 1.7 0.00 0.00 0.00 78 1014.3
20260902015428 72 81 0.9 1.7 0.00 0.00 0.00 78 1014.2
20260902015317 72 81 0.9 1.7 0.00 0.00 0.00 79 1014.2
20260902015155 72 81 0.9 1.7 0.00 0.00 0.00 79 1014.2
20260902015121 72 82 0.9 1.7 0.00 0.00 0.00 79 1014.2
20260902014959 72 81 0.0 1.7 0.00 0.00 0.00 79 1014.1
20260902014904 72 81 0.0 0.9 0.00 0.00 0.00 79 1014.1
20260902014809 72 82 0.0 0.9 0.00 0.00 0.00 78 1014.1
20260902014718 72 81 0.0 0.9 0.00 0.00 0.00 78 1014.1
20260902014602 72 81 0.0 0.9 0.00 0.00 0.00 78 1014.0
20260902014507 72 81 0.0 0.9 0.00 0.00 0.00 78 1013.9
20260902014411 72 81 0.0 0.9 0.00 0.00 0.00 78 1013.9
20260902014316 72 81 0.0 0.9 0.00 0.00 0.00 78 1014.0
20260902014200 73 81 0.0 0.9 0.00 0.00 0.00 77 1014.0
20260902014108 72 81 0.9 0.9 0.00 0.00 0.00 76 1014.0
20260902014013 72 81 0.9 0.9 0.00 0.00 0.00 76 1014.0
20260902013917 73 81 0.9 0.9 0.00 0.00 0.00 75 1014.0
20260902013755 73 82 0.9 0.9 0.00 0.00 0.00 76 1014.0
20260902013659 73 82 0.0 0.9 0.00 0.00 0.00 76 1013.9
20260902013624 73 82 0.0 0.0 0.00 0.00 0.00 75 1014.0
20260902013508 73 81 0.0 0.0 0.00 0.00 0.00 75 1014.0
20260902013356 73 82 0.0 0.0 0.00 0.00 0.00 74 1014.0
20260902013301 73 81 0.0 0.0 0.00 0.00 0.00 74 1014.0
20260902013206 73 81 0.0 0.0 0.00 0.00 0.00 74 1014.0
20260902013111 73 81 0.0 0.0 0.00 0.00 0.00 74 1014.0
20260902013016 73 81 0.0 0.0 0.00 0.00 0.00 74 1014.0
20260902012919 73 81 0.0 0.0 0.00 0.00 0.00 75 1013.9
20260902012807 73 82 0.0 0.0 0.00 0.00 0.00 74 1014.0
20260902012732 73 81 0.0 0.0 0.00 0.00 0.00 74 1014.0
20260902012556 73 82 0.0 0.0 0.00 0.00 0.00 75 1013.9
20260902012501 73 81 0.0 0.0 0.00 0.00 0.00 75 1014.0
20260902012406 73 82 0.0 0.0 0.00 0.00 0.00 75 1014.0
20260902012310 73 81 0.0 0.0 0.00 0.00 0.00 74 1014.0
20260902012159 73 82 0.0 0.0 0.00 0.00 0.00 74 1013.9
20260902012104 73 82 0.0 0.0 0.00 0.00 0.00 74 1013.9
20260902012008 73 82 0.0 0.0 0.00 0.00 0.00 75 1013.9
20260902011912 74 82 0.0 0.0 0.00 0.00 0.00 75 1013.8
20260902011837 74 82 0.0 0.0 0.00 0.00 0.00 75 1013.8
20260902011654 74 82 0.0 0.0 0.00 0.00 0.00 75 1013.7
20260902011620 74 82 0.0 0.0 0.00 0.00 0.00 75 1013.7
20260902011508 74 82 0.0 0.0 0.00 0.00 0.00 74 1013.7
20260902011413 74 81 0.0 0.0 0.00 0.00 0.00 74 1013.7
20260902011257 74 82 0.0 0.0 0.00 0.00 0.00 74 1013.7
20260902011222 74 82 0.0 0.0 0.00 0.00 0.00 73 1013.7
20260902011059 74 82 0.0 0.0 0.00 0.00 0.00 72 1013.7
20260902011003 74 82 0.0 0.0 0.00 0.00 0.00 72 1013.6
20260902010912 74 82 0.0 0.9 0.00 0.00 0.00 72 1013.6
20260902010757 74 81 0.0 1.7 0.00 0.00 0.00 73 1013.6
20260902010721 75 82 0.0 1.7 0.00 0.00 0.00 73 1013.6
20260902010559 75 82 0.0 1.7 0.00 0.00 0.00 73 1013.5
20260902010503 75 82 0.0 1.7 0.00 0.00 0.00 72 1013.5
20260902010407 75 82 0.0 1.7 0.00 0.00 0.00 72 1013.5
20260902010255 75 81 0.0 1.7 0.00 0.00 0.00 72 1013.5
20260902010159 75 82 0.0 1.7 0.00 0.00 0.00 72 1013.5
20260902010104 75 82 0.9 1.7 0.00 0.00 0.00 72 1013.5
20260902010008 75 82 0.9 1.7 0.00 0.00 0.00 72 1013.5
20260902005913 75 82 0.9 1.7 0.00 0.00 0.00 72 1013.5
20260902005819 75 82 0.9 1.7 0.00 0.00 0.00 71 1013.6
20260902005702 75 82 0.0 0.9 0.00 0.00 0.00 72 1013.6
20260902005611 75 82 0.0 0.0 0.00 0.00 0.00 72 1013.6
20260902005517 75 82 0.0 0.0 0.00 0.00 0.00 71 1013.7
20260902005355 75 82 0.0 0.0 0.00 0.00 0.00 71 1013.7
20260902005300 75 81 0.0 0.0 0.00 0.00 0.00 70 1013.7
20260902005203 76 82 0.0 0.0 0.00 0.00 0.00 70 1013.7
20260902005109 76 81 0.0 0.0 0.00 0.00 0.00 70 1013.7
20260902005018 76 82 0.0 0.0 0.00 0.00 0.00 69 1013.7
20260902004921 76 82 0.0 0.9 0.00 0.00 0.00 69 1013.7
20260902004805 76 81 0.0 0.9 0.00 0.00 0.00 69 1013.7
20260902004729 76 82 0.0 0.9 0.00 0.00 0.00 69 1013.7
20260902004633 76 82 0.0 0.9 0.00 0.00 0.00 69 1013.7
20260902004517 76 82 0.0 0.9 0.00 0.00 0.00 69 1013.8
20260902004401 76 82 0.0 0.9 0.00 0.00 0.00 69 1013.8
20260902004306 76 82 0.0 2.6 0.00 0.00 0.00 68 1013.8
20260902004214 77 82 0.0 2.6 0.00 0.00 0.00 68 1013.8
20260902004118 77 82 0.0 2.6 0.00 0.00 0.00 69 1013.8
20260902003956 77 82 0.0 2.6 0.00 0.00 0.00 68 1013.8
20260902003921 77 82 0.0 2.6 0.00 0.00 0.00 68 1013.9
20260902003825 77 82 0.0 2.6 0.00 0.00 0.00 68 1013.9
20260902003708 77 82 0.9 2.6 0.00 0.00 0.00 68 1013.9
20260902003613 77 82 0.9 2.6 0.00 0.00 0.00 69 1013.9
20260902003501 77 82 0.9 2.6 0.00 0.00 0.00 67 1013.8
20260902003405 78 82 0.9 2.6 0.00 0.00 0.00 66 1013.7
20260902003311 78 82 0.0 2.6 0.00 0.00 0.00 66 1013.7
20260902003155 78 82 0.9 2.6 0.00 0.00 0.00 66 1013.7
20260902003100 78 82 0.9 2.6 0.00 0.00 0.00 66 1013.7
20260902003006 78 82 1.7 2.6 0.00 0.00 0.00 66 1013.7
20260902002914 78 82 1.7 2.6 0.00 0.00 0.00 66 1013.7
20260902002819 78 82 1.7 2.6 0.00 0.00 0.00 66 1013.7
20260902002657 78 81 1.7 2.6 0.00 0.00 0.00 65 1013.7
20260902002601 78 81 1.7 2.6 0.00 0.00 0.00 65 1013.8
20260902002526 78 81 2.6 2.6 0.00 0.00 0.00 64 1013.8
20260902002410 78 81 2.6 2.6 0.00 0.00 0.00 64 1013.8
20260902002300 78 81 2.6 2.6 0.00 0.00 0.00 64 1013.8
20260902002225 78 80 2.6 2.6 0.00 0.00 0.00 63 1013.8
20260902002108 78 72 1.7 2.6 0.00 0.00 0.00 62 1013.8
20260902002033 79 72 1.7 2.6 0.00 0.00 0.00 62 1013.8
20260902001917 79 72 1.7 2.6 0.00 0.00 0.00 61 1013.8
20260902001754 79 38 0.9 1.7 0.00 0.00 0.00 61 1013.8
20260902001700 79 38 0.9 1.7 0.00 0.00 0.00 59 1013.9
20260902001609 79 38 0.9 1.7 0.00 0.00 0.00 60 1013.9
20260902001513 79 38 0.9 1.7 0.00 0.00 0.00 60 1013.9
20260902001358 79 38 0.9 1.7 0.00 0.00 0.00 62 1013.9
20260902001302 79 38 0.9 1.7 0.00 0.00 0.00 62 1014.0
20260902001208 79 38 0.9 1.7 0.00 0.00 0.00 63 1014.0
20260902001112 80 38 0.9 1.7 0.00 0.00 0.00 61 1014.0
20260902001000 80 38 0.9 1.7 0.00 0.00 0.00 62 1013.9
20260902000905 80 38 0.9 1.7 0.00 0.00 0.00 63 1013.9
20260902000831 80 38 1.7 1.7 0.00 0.00 0.00 62 1013.9
20260902000734 80 38 1.7 2.6 0.00 0.00 0.00 61 1014.0
20260902000557 80 38 1.7 2.6 0.00 0.00 0.00 61 1013.9
20260902000503 80 38 1.7 2.6 0.00 0.00 0.00 61 1014.0
20260902000429 80 38 0.9 2.6 0.00 0.00 0.00 61 1013.9
20260902000312 80 38 0.9 2.6 0.00 0.00 0.00 61 1013.9
20260902000219 81 38 0.9 3.5 0.00 0.00 0.00 60 1013.9
20260902000055 80 38 0.9 3.5 0.00 0.00 0.00 57 1013.8
20260902000000 81 38 1.7 3.5 0.00 0.00 0.00 55 1013.9
20260901235904 81 38 1.7 3.5 0.00 0.00 0.00 55 1013.9
20260901235809 81 39 1.7 3.5 0.00 0.00 0.00 55 1013.9
20260901235657 81 38 1.7 3.5 0.00 0.00 0.00 56 1013.9
20260901235602 81 38 1.7 3.5 0.00 0.00 0.00 56 1014.0
20260901235528 81 39 1.7 3.5 0.00 0.00 0.00 56 1014.0
20260901235431 81 38 2.6 3.5 0.00 0.00 0.00 57 1014.0
20260901235334 81 39 1.7 3.5 0.00 0.00 0.00 57 1014.0
20260901235217 81 34 1.7 4.3 0.00 0.00 0.00 56 1014.0
20260901235101 81 34 2.6 4.3 0.00 0.00 0.00 56 1014.0
20260901235006 81 20 1.7 4.3 0.00 0.00 0.00 56 1014.0
20260901234854 81 13 1.7 4.3 0.00 0.00 0.00 58 1014.0
20260901234759 81 10 1.7 4.3 0.00 0.00 0.00 59 1014.0
20260901234704 81 9 1.7 4.3 0.00 0.00 0.00 58 1014.0
20260901234608 81 5 1.7 4.3 0.00 0.00 0.00 59 1014.0
20260901234514 81 5 2.6 4.3 0.00 0.00 0.00 58 1014.0
20260901234402 81 9 2.6 4.3 0.00 0.00 0.00 58 1014.0
20260901234328 81 360 2.6 3.5 0.00 0.00 0.00 59 1014.0
20260901234211 81 355 2.6 3.5 0.00 0.00 0.00 59 1014.0
20260901234055 81 9 2.6 4.3 0.00 0.00 0.00 59 1014.0
20260901233959 81 5 2.6 4.3 0.00 0.00 0.00 59 1014.0
20260901233905 82 9 2.6 4.3 0.00 0.00 0.00 59 1014.0
20260901233829 82 9 2.6 4.3 0.00 0.00 0.00 59 1014.0
20260901233657 82 9 2.6 4.3 0.00 0.00 0.00 59 1014.0
20260901233600 82 9 2.6 4.3 0.00 0.00 0.00 59 1013.9
20260901233505 82 13 2.6 4.3 0.00 0.00 0.00 59 1014.0
20260901233410 82 14 2.6 4.3 0.00 0.00 0.00 58 1014.0
20260901233315 82 329 2.6 4.3 0.00 0.00 0.00 59 1013.9
20260901233239 82 342 2.6 4.3 0.00 0.00 0.00 58 1013.9
20260901233057 82 360 2.6 4.3 0.00 0.00 0.00 57 1014.0
20260901233025 82 341 2.6 5.2 0.00 0.00 0.00 57 1014.0
20260901232908 82 11 2.6 5.2 0.00 0.00 0.00 57 1014.0
20260901232814 82 360 2.6 5.2 0.00 0.00 0.00 56 1014.1
20260901232659 82 5 2.6 5.2 0.00 0.00 0.00 56 1014.0
20260901232604 83 360 3.5 5.2 0.00 0.00 0.00 56 1014.0
20260901232529 83 360 2.6 5.2 0.00 0.00 0.00 57 1013.9
20260901232431 83 355 2.6 5.2 0.00 0.00 0.00 58 1013.9
20260901232259 83 348 2.6 5.2 0.00 0.00 0.00 58 1014.0
20260901232224 83 9 2.6 3.5 0.00 0.00 0.00 57 1013.9
20260901232108 83 9 2.6 3.5 0.00 0.00 0.00 56 1013.9
20260901232012 83 12 2.6 3.5 0.00 0.00 0.00 55 1014.0
20260901231858 83 17 1.7 3.5 0.00 0.00 0.00 55 1013.9
20260901231822 83 18 2.6 3.5 0.00 0.00 0.00 55 1013.9
20260901231706 83 5 2.6 3.5 0.00 0.00 0.00 55 1013.9
20260901231555 83 5 1.7 4.3 0.00 0.00 0.00 55 1013.9
20260901231500 83 32 1.7 4.3 0.00 0.00 0.00 54 1013.9
20260901231405 83 31 1.7 5.2 0.00 0.00 0.00 55 1013.9
20260901231329 83 40 1.7 5.2 0.00 0.00 0.00 55 1013.9
20260901231213 83 16 1.7 5.2 0.00 0.00 0.00 54 1013.9
20260901231117 83 28 1.7 5.2 0.00 0.00 0.00 54 1013.8
20260901231005 83 32 1.7 5.2 0.00 0.00 0.00 54 1013.9
20260901230910 83 34 2.6 7.8 0.00 0.00 0.00 52 1013.9
20260901230814 83 26 2.6 7.8 0.00 0.00 0.00 52 1013.8
20260901230718 83 62 2.6 7.8 0.00 0.00 0.00 53 1013.9
20260901230556 83 40 2.6 7.8 0.00 0.00 0.00 52 1013.9
20260901230502 83 5 2.6 7.8 0.00 0.00 0.00 53 1013.9
20260901230411 83 42 2.6 7.8 0.00 0.00 0.00 52 1013.9
20260901230256 83 40 2.6 7.8 0.00 0.00 0.00 53 1013.9
20260901230200 83 5 3.5 7.8 0.00 0.00 0.00 53 1014.0
20260901230125 83 20 4.3 7.8 0.00 0.00 0.00 52 1014.0
20260901230009 83 41 3.5 7.8 0.00 0.00 0.00 54 1014.0
20260901225913 83 360 2.6 5.2 0.00 0.00 0.00 54 1014.0
20260901225818 83 24 2.6 5.2 0.00 0.00 0.00 54 1014.0
20260901225706 83 31 2.6 5.2 0.00 0.00 0.00 53 1014.0
20260901225630 83 11 2.6 5.2 0.00 0.00 0.00 53 1014.0
20260901225513 83 360 2.6 5.2 0.00 0.00 0.00 53 1014.0
20260901225418 83 336 1.7 3.5 0.00 0.00 0.00 54 1014.0
20260901225256 83 40 1.7 3.5 0.00 0.00 0.00 53 1013.9
20260901225200 83 40 1.7 7.0 0.00 0.00 0.00 52 1013.9
20260901225109 83 43 1.7 7.0 0.00 0.00 0.00 53 1013.9
20260901225013 83 43 1.7 7.0 0.00 0.00 0.00 53 1013.9
20260901224937 83 44 1.7 7.0 0.00 0.00 0.00 52 1013.8
20260901224754 83 44 1.7 7.0 0.00 0.00 0.00 52 1013.8
20260901224700 83 44 1.7 7.0 0.00 0.00 0.00 52 1013.8
20260901224605 83 44 1.7 7.0 0.00 0.00 0.00 52 1013.9
20260901224509 83 45 2.6 7.0 0.00 0.00 0.00 52 1013.9
20260901224419 83 11 2.6 7.0 0.00 0.00 0.00 53 1013.9
20260901224256 83 336 2.6 4.3 0.00 0.00 0.00 53 1013.8
20260901224222 83 36 2.6 4.3 0.00 0.00 0.00 54 1013.9
20260901224126 83 22 2.6 4.3 0.00 0.00 0.00 53 1013.8
20260901224009 83 43 1.7 4.3 0.00 0.00 0.00 53 1013.8
20260901223913 83 41 1.7 4.3 0.00 0.00 0.00 53 1013.8
20260901223818 83 27 1.7 4.3 0.00 0.00 0.00 53 1013.8
20260901223706 83 355 2.6 4.3 0.00 0.00 0.00 53 1013.8
20260901223610 83 25 2.6 4.3 0.00 0.00 0.00 53 1013.8
20260901223455 83 59 1.7 4.3 0.00 0.00 0.00 53 1013.8
20260901223359 83 15 1.7 4.3 0.00 0.00 0.00 52 1013.8
20260901223304 83 360 1.7 4.3 0.00 0.00 0.00 53 1013.8
20260901223210 83 22 1.7 4.3 0.00 0.00 0.00 53 1013.8
20260901223119 83 28 1.7 4.3 0.00 0.00 0.00 52 1013.8
20260901222956 83 13 1.7 4.3 0.00 0.00 0.00 53 1013.8
20260901222921 83 5 1.7 4.3 0.00 0.00 0.00 52 1013.8
20260901222758 83 5 2.6 4.3 0.00 0.00 0.00 52 1013.8
20260901222702 84 19 2.6 4.3 0.00 0.00 0.00 53 1013.7
20260901222608 83 25 1.7 4.3 0.00 0.00 0.00 53 1013.7
20260901222456 84 5 1.7 4.3 0.00 0.00 0.00 53 1013.8
20260901222400 84 5 2.6 4.3 0.00 0.00 0.00 53 1013.8
20260901222306 84 360 2.6 4.3 0.00 0.00 0.00 53 1013.8
20260901222208 84 360 2.6 4.3 0.00 0.00 0.00 52 1013.8
20260901222113 84 11 2.6 4.3 0.00 0.00 0.00 53 1013.8
20260901221957 84 9 2.6 4.3 0.00 0.00 0.00 54 1013.8
20260901221906 84 355 3.5 4.3 0.00 0.00 0.00 53 1013.8
20260901221810 84 355 3.5 4.3 0.00 0.00 0.00 54 1013.8
20260901221716 84 9 2.6 4.3 0.00 0.00 0.00 55 1013.8
20260901221640 84 340 2.6 4.3 0.00 0.00 0.00 54 1013.8
20260901221456 84 360 2.6 4.3 0.00 0.00 0.00 54 1013.8
20260901221400 84 341 2.6 4.3 0.00 0.00 0.00 53 1013.8
20260901221305 84 360 2.6 5.2 0.00 0.00 0.00 52 1013.8
20260901221213 84 340 2.6 5.2 0.00 0.00 0.00 51 1013.8
20260901221059 84 355 3.5 5.2 0.00 0.00 0.00 52 1013.8
20260901221004 84 360 3.5 7.0 0.00 0.00 0.00 52 1013.9
20260901220908 84 360 3.5 7.0 0.00 0.00 0.00 52 1013.9
20260901220834 84 360 3.5 7.0 0.00 0.00 0.00 52 1013.9
20260901220658 84 355 3.5 7.0 0.00 0.00 0.00 52 1013.9
20260901220627 84 9 3.5 7.0 0.00 0.00 0.00 52 1013.9
20260901220510 85 342 3.5 7.0 0.00 0.00 0.00 52 1013.9
20260901220356 85 360 4.3 7.0 0.00 0.00 0.00 52 1013.9
20260901220300 85 355 4.3 7.0 0.00 0.00 0.00 51 1013.9
20260901220205 85 5 4.3 7.0 0.00 0.00 0.00 51 1013.9
20260901220130 85 360 4.3 7.0 0.00 0.00 0.00 51 1013.9
20260901215957 85 360 4.3 7.0 0.00 0.00 0.00 53 1013.8
20260901215902 85 355 4.3 7.0 0.00 0.00 0.00 52 1013.8
20260901215806 85 360 4.3 7.0 0.00 0.00 0.00 51 1013.8
20260901215711 85 344 4.3 7.0 0.00 0.00 0.00 52 1013.8
20260901215555 85 360 4.3 7.0 0.00 0.00 0.00 54 1013.8
20260901215501 85 341 3.5 7.0 0.00 0.00 0.00 54 1013.8
20260901215409 85 338 3.5 7.0 0.00 0.00 0.00 52 1013.8
20260901215313 85 355 3.5 7.0 0.00 0.00 0.00 52 1013.7
20260901215216 85 360 2.6 7.0 0.00 0.00 0.00 51 1013.7
20260901215100 85 343 2.6 7.0 0.00 0.00 0.00 51 1013.7
20260901215005 85 24 2.6 7.0 0.00 0.00 0.00 49 1013.7
20260901214909 85 30 2.6 7.0 0.00 0.00 0.00 49 1013.7
20260901214834 85 32 3.5 7.0 0.00 0.00 0.00 49 1013.7
20260901214701 85 22 2.6 7.0 0.00 0.00 0.00 50 1013.7
20260901214607 85 16 2.6 7.0 0.00 0.00 0.00 50 1013.7
20260901214532 85 5 2.6 4.3 0.00 0.00 0.00 53 1013.7
20260901214356 85 360 2.6 4.3 0.00 0.00 0.00 53 1013.6
20260901214320 85 15 2.6 3.5 0.00 0.00 0.00 52 1013.6
20260901214158 85 11 2.6 3.5 0.00 0.00 0.00 49 1013.6
20260901214107 85 11 1.7 3.5 0.00 0.00 0.00 51 1013.5
20260901214011 85 360 1.7 5.2 0.00 0.00 0.00 52 1013.5
20260901213856 85 360 2.6 5.2 0.00 0.00 0.00 50 1013.5
20260901213802 86 360 2.6 5.2 0.00 0.00 0.00 51 1013.5
20260901213707 86 360 2.6 5.2 0.00 0.00 0.00 51 1013.6
20260901213611 86 360 2.6 5.2 0.00 0.00 0.00 51 1013.6
20260901213521 86 355 2.6 5.2 0.00 0.00 0.00 50 1013.6
20260901213358 86 355 2.6 5.2 0.00 0.00 0.00 48 1013.6
20260901213302 86 360 3.5 5.2 0.00 0.00 0.00 50 1013.6
20260901213207 86 339 3.5 5.2 0.00 0.00 0.00 52 1013.6
20260901213111 86 333 2.6 5.2 0.00 0.00 0.00 49 1013.6
20260901212955 86 5 1.7 5.2 0.00 0.00 0.00 49 1013.6
20260901212920 86 14 1.7 5.2 0.00 0.00 0.00 48 1013.6
20260901212828 86 12 2.6 7.0 0.00 0.00 0.00 48 1013.6
20260901212711 86 5 2.6 7.0 0.00 0.00 0.00 47 1013.6
20260901212555 86 24 2.6 7.0 0.00 0.00 0.00 47 1013.6
20260901212521 86 360 3.5 7.0 0.00 0.00 0.00 47 1013.7
20260901212424 86 35 3.5 7.0 0.00 0.00 0.00 48 1013.6
20260901212328 86 360 3.5 7.0 0.00 0.00 0.00 47 1013.6
20260901212232 87 360 4.3 7.0 0.00 0.00 0.00 47 1013.6
20260901212055 87 360 4.3 7.0 0.00 0.00 0.00 46 1013.5
20260901212003 87 350 4.3 7.0 0.00 0.00 0.00 47 1013.5
20260901211908 87 339 3.5 7.0 0.00 0.00 0.00 48 1013.5
20260901211812 87 5 2.6 7.0 0.00 0.00 0.00 45 1013.6
20260901211656 87 33 1.7 7.0 0.00 0.00 0.00 47 1013.5
20260901211601 87 18 1.7 7.0 0.00 0.00 0.00 47 1013.5
20260901211506 87 19 1.7 7.0 0.00 0.00 0.00 48 1013.4
20260901211354 87 41 1.7 7.0 0.00 0.00 0.00 46 1013.5
20260901211259 87 42 3.5 7.0 0.00 0.00 0.00 46 1013.4
20260901211202 87 43 4.3 7.0 0.00 0.00 0.00 45 1013.5
20260901211128 87 42 4.3 7.0 0.00 0.00 0.00 43 1013.5
20260901211011 87 46 4.3 7.0 0.00 0.00 0.00 44 1013.4
20260901210918 87 41 4.3 7.0 0.00 0.00 0.00 46 1013.5
20260901210755 87 59 1.7 7.0 0.00 0.00 0.00 44 1013.6
20260901210725 88 30 2.6 7.0 0.00 0.00 0.00 50 1013.5
20260901210628 88 329 2.6 7.0 0.00 0.00 0.00 48 1013.6
20260901210511 88 331 2.6 7.0 0.00 0.00 0.00 48 1013.6
20260901210435 88 355 3.5 7.0 0.00 0.00 0.00 46 1013.6
20260901210319 88 336 4.3 7.0 0.00 0.00 0.00 49 1013.7
20260901210202 88 323 2.6 5.2 0.00 0.00 0.00 49 1013.6
20260901210128 88 336 1.7 4.3 0.00 0.00 0.00 46 1013.6
20260901210011 88 5 1.7 5.2 0.00 0.00 0.00 47 1013.7
20260901205900 88 5 1.7 5.2 0.00 0.00 0.00 49 1013.7
20260901205804 88 41 1.7 5.2 0.00 0.00 0.00 46 1013.8
20260901205708 88 37 1.7 7.0 0.00 0.00 0.00 45 1013.8
20260901205633 88 37 1.7 7.0 0.00 0.00 0.00 45 1013.7
20260901205538 88 45 1.7 7.0 0.00 0.00 0.00 47 1013.8
20260901205441 88 46 1.7 7.0 0.00 0.00 0.00 46 1013.7
20260901205257 88 52 3.5 7.0 0.00 0.00 0.00 45 1013.8
20260901205223 88 40 3.5 7.0 0.00 0.00 0.00 45 1013.9
20260901205110 88 28 3.5 7.0 0.00 0.00 0.00 45 1013.9
20260901205014 88 36 2.6 7.0 0.00 0.00 0.00 43 1013.8
20260901204918 89 53 2.6 7.0 0.00 0.00 0.00 44 1014.0
20260901204802 89 360 3.5 7.0 0.00 0.00 0.00 45 1013.9
20260901204707 89 331 3.5 7.0 0.00 0.00 0.00 45 1013.9
20260901204611 89 360 2.6 7.0 0.00 0.00 0.00 45 1014.0
20260901204500 89 34 2.6 8.7 0.00 0.00 0.00 44 1014.0
20260901204406 89 37 2.6 8.7 0.00 0.00 0.00 45 1014.0
20260901204331 89 12 2.6 8.7 0.00 0.00 0.00 46 1014.0
20260901204235 89 15 3.5 8.7 0.00 0.00 0.00 47 1014.0
20260901204059 89 360 5.2 8.7 0.00 0.00 0.00 46 1014.0
20260901204023 89 338 5.2 8.7 0.00 0.00 0.00 48 1014.0
20260901203907 89 344 4.3 8.7 0.00 0.00 0.00 43 1014.0
20260901203755 89 360 6.1 9.6 0.00 0.00 0.00 43 1014.0
20260901203700 89 30 6.1 9.6 0.00 0.00 0.00 45 1014.1
20260901203606 89 26 6.1 9.6 0.00 0.00 0.00 44 1014.0
20260901203510 89 11 5.2 9.6 0.00 0.00 0.00 42 1014.0
20260901203416 89 23 4.3 9.6 0.00 0.00 0.00 46 1014.0
20260901203320 89 342 5.2 9.6 0.00 0.00 0.00 45 1013.9
20260901203224 89 40 7.0 9.6 0.00 0.00 0.00 46 1014.0
20260901203107 89 13 7.0 9.6 0.00 0.00 0.00 46 1014.0
20260901203036 89 340 5.2 9.6 0.00 0.00 0.00 47 1013.9
20260901202939 89 360 4.3 7.8 0.00 0.00 0.00 48 1014.0
20260901202756 89 360 4.3 7.8 0.00 0.00 0.00 48 1014.0
20260901202720 89 9 4.3 7.8 0.00 0.00 0.00 47 1014.0
20260901202557 89 360 5.2 7.8 0.00 0.00 0.00 46 1014.0
20260901202522 89 360 4.3 7.8 0.00 0.00 0.00 48 1014.1
20260901202407 89 360 2.6 7.0 0.00 0.00 0.00 49 1014.1
20260901202255 89 355 1.7 7.0 0.00 0.00 0.00 47 1014.1
20260901202201 89 72 0.9 7.0 0.00 0.00 0.00 47 1014.0
20260901202126 89 72 0.9 7.0 0.00 0.00 0.00 47 1014.1
20260901202010 89 72 1.7 7.0 0.00 0.00 0.00 48 1014.1
20260901201911 89 72 3.5 7.0 0.00 0.00 0.00 45 1014.1
20260901201756 89 49 4.3 6.1 0.00 0.00 0.00 46 1014.1
20260901201722 89 360 4.3 6.1 0.00 0.00 0.00 46 1014.1
20260901201609 89 360 3.5 6.1 0.00 0.00 0.00 45 1014.1
20260901201513 89 24 3.5 6.1 0.00 0.00 0.00 45 1014.1
20260901201418 89 42 2.6 7.0 0.00 0.00 0.00 43 1014.1
20260901201256 89 63 2.6 7.0 0.00 0.00 0.00 42 1014.1
20260901201220 89 32 1.7 7.0 0.00 0.00 0.00 46 1014.1
20260901201058 89 32 0.9 7.0 0.00 0.00 0.00 41 1014.1
20260901201007 89 32 2.6 7.0 0.00 0.00 0.00 42 1014.1
20260901200911 89 338 4.3 7.0 0.00 0.00 0.00 45 1014.1
20260901200816 89 360 2.6 5.2 0.00 0.00 0.00 50 1014.2
20260901200720 89 163 1.7 5.2 0.00 0.00 0.00 42 1014.2
20260901200604 89 279 1.7 7.8 0.00 0.00 0.00 43 1014.1
20260901200510 89 280 2.6 7.8 0.00 0.00 0.00 43 1014.1
20260901200354 89 280 1.7 7.8 0.00 0.00 0.00 46 1014.2
20260901200304 89 273 1.7 7.8 0.00 0.00 0.00 44 1014.1
20260901200207 89 274 3.5 7.8 0.00 0.00 0.00 47 1014.1
20260901200111 89 360 4.3 7.8 0.00 0.00 0.00 44 1014.2
20260901200018 89 360 4.3 8.7 0.00 0.00 0.00 47 1014.3
20260901195855 89 360 4.3 8.7 0.00 0.00 0.00 49 1014.3
20260901195800 88 355 4.3 8.7 0.00 0.00 0.00 48 1014.3
20260901195710 88 360 3.5 8.7 0.00 0.00 0.00 49 1014.3
20260901195632 88 52 4.3 8.7 0.00 0.00 0.00 45 1014.3
20260901195535 88 78 4.3 8.7 0.00 0.00 0.00 44 1014.2
20260901195359 88 59 3.5 8.7 0.00 0.00 0.00 47 1014.3
20260901195323 88 22 4.3 8.7 0.00 0.00 0.00 46 1014.3
20260901195227 88 324 5.2 8.7 0.00 0.00 0.00 47 1014.3
20260901195130 88 307 3.5 7.8 0.00 0.00 0.00 48 1014.3
20260901195014 88 360 2.6 7.8 0.00 0.00 0.00 51 1014.2